www.cux-wetter.de
Wetterdaten: Samstag, 17.10.2015
Datum Zeit Temp. A. Feuchte A. Luftdruck Regen Wind Richtung Richtung Sonnenschein Solar Taupunkt Windchill Windben
17.10.2015 00:00 9,2 C 98 % 1016,2 hPa 0,0 l/m 0,4 km/h (0 Bft) O 84 0 min 0 W/m 8,9 C 9,2 C 3,2 km/h (1 Bft)
17.10.2015 00:03 9,2 C 98 % 1016,3 hPa 0,0 l/m 2,3 km/h (1 Bft) NO 54 0 min 0 W/m 8,9 C 9,2 C 4,8 km/h (1 Bft)
17.10.2015 00:06 9,2 C 98 % 1016,2 hPa 0,0 l/m 1,1 km/h (1 Bft) O-NO 66 0 min 0 W/m 8,9 C 9,2 C 3,2 km/h (1 Bft)
17.10.2015 00:09 9,2 C 98 % 1016,2 hPa 0,0 l/m 1,2 km/h (1 Bft) O-NO 66 0 min 0 W/m 8,9 C 9,2 C 3,2 km/h (1 Bft)
17.10.2015 00:12 9,2 C 98 % 1016,2 hPa 0,0 l/m 1,0 km/h (0 Bft) O-NO 66 0 min 0 W/m 8,9 C 9,2 C 3,2 km/h (1 Bft)
17.10.2015 00:15 9,2 C 98 % 1016,2 hPa 0,0 l/m 0,8 km/h (0 Bft) O-NO 66 0 min 0 W/m 8,9 C 9,2 C 3,2 km/h (1 Bft)
17.10.2015 00:18 9,2 C 98 % 1016,2 hPa 0,0 l/m 0,2 km/h (0 Bft) O-NO 66 0 min 0 W/m 8,9 C 9,2 C 1,6 km/h (1 Bft)
17.10.2015 00:21 9,2 C 98 % 1016,1 hPa 0,0 l/m 0,3 km/h (0 Bft) O-NO 66 0 min 0 W/m 8,9 C 9,2 C 1,6 km/h (1 Bft)
17.10.2015 00:24 9,1 C 98 % 1016,2 hPa 0,0 l/m 0,3 km/h (0 Bft) O-NO 66 0 min 0 W/m 8,8 C 9,1 C 1,6 km/h (1 Bft)
17.10.2015 00:27 9,1 C 98 % 1016,2 hPa 0,0 l/m 0,5 km/h (0 Bft) O-NO 72 0 min 0 W/m 8,8 C 9,1 C 1,6 km/h (1 Bft)
17.10.2015 00:30 9,1 C 98 % 1016,2 hPa 0,0 l/m 0,6 km/h (0 Bft) O-NO 72 0 min 0 W/m 8,8 C 9,1 C 3,2 km/h (1 Bft)
17.10.2015 00:33 9,1 C 98 % 1016,2 hPa 0,0 l/m 0,3 km/h (0 Bft) O-NO 72 0 min 0 W/m 8,8 C 9,1 C 1,6 km/h (1 Bft)
17.10.2015 00:36 9,1 C 98 % 1016,2 hPa 0,0 l/m 0,4 km/h (0 Bft) O-NO 72 0 min 0 W/m 8,8 C 9,1 C 1,6 km/h (1 Bft)
17.10.2015 00:39 9,1 C 98 % 1016,2 hPa 0,0 l/m 0,3 km/h (0 Bft) O-NO 72 0 min 0 W/m 8,8 C 9,1 C 1,6 km/h (1 Bft)
17.10.2015 00:42 9,1 C 98 % 1016,2 hPa 0,0 l/m 0,1 km/h (0 Bft) O-NO 72 0 min 0 W/m 8,8 C 9,1 C 1,6 km/h (1 Bft)
17.10.2015 00:45 9,2 C 98 % 1016,2 hPa 0,0 l/m 0,1 km/h (0 Bft) O-NO 72 0 min 0 W/m 8,9 C 9,2 C 1,6 km/h (1 Bft)
17.10.2015 00:48 9,2 C 98 % 1016,2 hPa 0,0 l/m 1,1 km/h (1 Bft) O-NO 72 0 min 0 W/m 8,9 C 9,2 C 3,2 km/h (1 Bft)
17.10.2015 00:51 9,2 C 98 % 1016,2 hPa 0,0 l/m 0,9 km/h (0 Bft) O 86 0 min 0 W/m 8,9 C 9,2 C 3,2 km/h (1 Bft)
17.10.2015 00:54 9,2 C 98 % 1016,2 hPa 0,0 l/m 0,2 km/h (0 Bft) O 86 0 min 0 W/m 8,9 C 9,2 C 1,6 km/h (1 Bft)
17.10.2015 00:57 9,2 C 98 % 1016,2 hPa 0,0 l/m 1,5 km/h (1 Bft) O 86 0 min 0 W/m 8,9 C 9,2 C 3,2 km/h (1 Bft)
17.10.2015 01:00 9,2 C 98 % 1016,3 hPa 0,0 l/m 1,5 km/h (1 Bft) NO 55 0 min 0 W/m 8,9 C 9,2 C 4,8 km/h (1 Bft)
17.10.2015 01:03 9,2 C 98 % 1016,2 hPa 0,0 l/m 1,5 km/h (1 Bft) N 355 0 min 0 W/m 8,9 C 9,2 C 4,8 km/h (1 Bft)
17.10.2015 01:06 9,2 C 98 % 1016,3 hPa 0,0 l/m 0,5 km/h (0 Bft) N 355 0 min 0 W/m 8,9 C 9,2 C 1,6 km/h (1 Bft)
17.10.2015 01:09 9,2 C 98 % 1016,3 hPa 0,0 l/m 0,8 km/h (0 Bft) N 355 0 min 0 W/m 8,9 C 9,2 C 1,6 km/h (1 Bft)
17.10.2015 01:12 9,1 C 98 % 1016,3 hPa 0,0 l/m 0,9 km/h (0 Bft) N 5 0 min 0 W/m 8,8 C 9,1 C 3,2 km/h (1 Bft)
17.10.2015 01:15 9,1 C 98 % 1016,3 hPa 0,0 l/m 0,8 km/h (0 Bft) N 5 0 min 0 W/m 8,8 C 9,1 C 1,6 km/h (1 Bft)
17.10.2015 01:18 9,1 C 98 % 1016,3 hPa 0,0 l/m 0,7 km/h (0 Bft) NO 47 0 min 0 W/m 8,8 C 9,1 C 4,8 km/h (1 Bft)
17.10.2015 01:21 9,1 C 98 % 1016,3 hPa 0,0 l/m 2,0 km/h (1 Bft) NO 48 0 min 0 W/m 8,8 C 9,1 C 6,4 km/h (2 Bft)
17.10.2015 01:24 9,1 C 98 % 1016,3 hPa 0,0 l/m 1,4 km/h (1 Bft) O-NO 60 0 min 0 W/m 8,8 C 9,1 C 3,2 km/h (1 Bft)
17.10.2015 01:27 9,1 C 98 % 1016,3 hPa 0,0 l/m 1,8 km/h (1 Bft) O-NO 59 0 min 0 W/m 8,8 C 9,1 C 3,2 km/h (1 Bft)
17.10.2015 01:30 9,1 C 98 % 1016,4 hPa 0,0 l/m 1,8 km/h (1 Bft) O-NO 57 0 min 0 W/m 8,8 C 9,1 C 4,8 km/h (1 Bft)
17.10.2015 01:33 9,1 C 98 % 1016,4 hPa 0,0 l/m 0,7 km/h (0 Bft) O-NO 57 0 min 0 W/m 8,8 C 9,1 C 3,2 km/h (1 Bft)
17.10.2015 01:36 9,1 C 98 % 1016,4 hPa 0,0 l/m 0,9 km/h (0 Bft) O-NO 57 0 min 0 W/m 8,8 C 9,1 C 3,2 km/h (1 Bft)
17.10.2015 01:39 9,1 C 98 % 1016,3 hPa 0,0 l/m 2,1 km/h (1 Bft) NO 53 0 min 0 W/m 8,8 C 9,1 C 4,8 km/h (1 Bft)
17.10.2015 01:42 9,1 C 98 % 1016,3 hPa 0,0 l/m 0,9 km/h (0 Bft) NO 53 0 min 0 W/m 8,8 C 9,1 C 3,2 km/h (1 Bft)
17.10.2015 01:45 9,1 C 98 % 1016,3 hPa 0,0 l/m 1,5 km/h (1 Bft) NO 53 0 min 0 W/m 8,8 C 9,1 C 3,2 km/h (1 Bft)
17.10.2015 01:48 9,1 C 98 % 1016,3 hPa 0,0 l/m 0,9 km/h (0 Bft) NO 53 0 min 0 W/m 8,8 C 9,1 C 3,2 km/h (1 Bft)
17.10.2015 01:51 9,1 C 98 % 1016,4 hPa 0,0 l/m 1,2 km/h (1 Bft) N-NO 26 0 min 0 W/m 8,8 C 9,1 C 4,8 km/h (1 Bft)
17.10.2015 01:54 9,1 C 98 % 1016,3 hPa 0,0 l/m 1,3 km/h (1 Bft) NO 48 0 min 0 W/m 8,8 C 9,1 C 3,2 km/h (1 Bft)
17.10.2015 01:57 9,1 C 98 % 1016,2 hPa 0,0 l/m 1,3 km/h (1 Bft) N-NO 32 0 min 0 W/m 8,8 C 9,1 C 3,2 km/h (1 Bft)
17.10.2015 02:00 9,1 C 98 % 1016,3 hPa 0,0 l/m 1,2 km/h (1 Bft) N-NO 32 0 min 0 W/m 8,8 C 9,1 C 3,2 km/h (1 Bft)
17.10.2015 02:03 9,1 C 98 % 1016,3 hPa 0,0 l/m 2,0 km/h (1 Bft) NO 39 0 min 0 W/m 8,8 C 9,1 C 6,4 km/h (2 Bft)
17.10.2015 02:06 9,1 C 98 % 1016,3 hPa 0,0 l/m 1,9 km/h (1 Bft) O-NO 61 0 min 0 W/m 8,8 C 9,1 C 4,8 km/h (1 Bft)
17.10.2015 02:09 9,1 C 98 % 1016,2 hPa 0,0 l/m 1,4 km/h (1 Bft) N-NO 32 0 min 0 W/m 8,8 C 9,1 C 4,8 km/h (1 Bft)
17.10.2015 02:12 9,1 C 98 % 1016,2 hPa 0,0 l/m 1,2 km/h (1 Bft) NO 42 0 min 0 W/m 8,8 C 9,1 C 3,2 km/h (1 Bft)
17.10.2015 02:15 9,1 C 98 % 1016,2 hPa 0,0 l/m 1,3 km/h (1 Bft) O-NO 65 0 min 0 W/m 8,8 C 9,1 C 4,8 km/h (1 Bft)
17.10.2015 02:18 9,1 C 98 % 1016,2 hPa 0,0 l/m 0,7 km/h (0 Bft) N 360 0 min 0 W/m 8,8 C 9,1 C 4,8 km/h (1 Bft)
17.10.2015 02:21 9,1 C 98 % 1016,2 hPa 0,0 l/m 1,4 km/h (1 Bft) N 355 0 min 0 W/m 8,8 C 9,1 C 6,4 km/h (2 Bft)
17.10.2015 02:24 9,1 C 98 % 1016,2 hPa 0,0 l/m 2,6 km/h (1 Bft) NO 55 0 min 0 W/m 8,8 C 9,1 C 6,4 km/h (2 Bft)
17.10.2015 02:27 9,1 C 98 % 1016,2 hPa 0,0 l/m 1,7 km/h (1 Bft) N-NW 329 0 min 0 W/m 8,8 C 9,1 C 4,8 km/h (1 Bft)
17.10.2015 02:30 9,1 C 98 % 1016,3 hPa 0,0 l/m 2,0 km/h (1 Bft) O 83 0 min 0 W/m 8,8 C 9,1 C 6,4 km/h (2 Bft)
17.10.2015 02:33 9,1 C 98 % 1016,3 hPa 0,0 l/m 2,1 km/h (1 Bft) NO 46 0 min 0 W/m 8,8 C 9,1 C 4,8 km/h (1 Bft)
17.10.2015 02:36 9,1 C 98 % 1016,2 hPa 0,0 l/m 1,1 km/h (1 Bft) NO 45 0 min 0 W/m 8,8 C 9,1 C 3,2 km/h (1 Bft)
17.10.2015 02:39 9,1 C 98 % 1016,2 hPa 0,0 l/m 0,9 km/h (0 Bft) NO 45 0 min 0 W/m 8,8 C 9,1 C 3,2 km/h (1 Bft)
17.10.2015 02:42 9,1 C 98 % 1016,1 hPa 0,0 l/m 1,2 km/h (1 Bft) NO 46 0 min 0 W/m 8,8 C 9,1 C 3,2 km/h (1 Bft)
17.10.2015 02:45 9,1 C 98 % 1016,2 hPa 0,0 l/m 1,9 km/h (1 Bft) O-SO 108 0 min 0 W/m 8,8 C 9,1 C 4,8 km/h (1 Bft)
17.10.2015 02:48 9,1 C 98 % 1016,2 hPa 0,0 l/m 1,2 km/h (1 Bft) O-SO 109 0 min 0 W/m 8,8 C 9,1 C 3,2 km/h (1 Bft)
17.10.2015 02:51 9,1 C 98 % 1016,2 hPa 0,0 l/m 2,0 km/h (1 Bft) O-SO 109 0 min 0 W/m 8,8 C 9,1 C 3,2 km/h (1 Bft)
17.10.2015 02:54 9,1 C 98 % 1016,2 hPa 0,0 l/m 3,1 km/h (1 Bft) SO 131 0 min 0 W/m 8,8 C 9,1 C 6,4 km/h (2 Bft)
17.10.2015 02:57 9,1 C 98 % 1016,2 hPa 0,0 l/m 2,2 km/h (1 Bft) SO 146 0 min 0 W/m 8,8 C 9,1 C 6,4 km/h (2 Bft)
17.10.2015 03:00 9,0 C 98 % 1016,2 hPa 0,0 l/m 2,2 km/h (1 Bft) SO 146 0 min 0 W/m 8,7 C 9,0 C 4,8 km/h (1 Bft)
17.10.2015 03:03 8,9 C 98 % 1016,3 hPa 0,0 l/m 1,6 km/h (1 Bft) SO 140 0 min 0 W/m 8,6 C 8,9 C 4,8 km/h (1 Bft)
17.10.2015 03:06 8,9 C 98 % 1016,2 hPa 0,0 l/m 2,6 km/h (1 Bft) SO 129 0 min 0 W/m 8,6 C 8,9 C 4,8 km/h (1 Bft)
17.10.2015 03:09 8,9 C 98 % 1016,2 hPa 0,0 l/m 2,6 km/h (1 Bft) SO 129 0 min 0 W/m 8,6 C 8,9 C 4,8 km/h (1 Bft)
17.10.2015 03:12 8,9 C 98 % 1016,3 hPa 0,0 l/m 2,4 km/h (1 Bft) SO 130 0 min 0 W/m 8,6 C 8,9 C 4,8 km/h (1 Bft)
17.10.2015 03:15 8,9 C 98 % 1016,3 hPa 0,0 l/m 2,4 km/h (1 Bft) SO 140 0 min 0 W/m 8,6 C 8,9 C 4,8 km/h (1 Bft)
17.10.2015 03:18 8,8 C 98 % 1016,3 hPa 0,0 l/m 2,6 km/h (1 Bft) SO 140 0 min 0 W/m 8,5 C 8,8 C 4,8 km/h (1 Bft)
17.10.2015 03:21 8,8 C 98 % 1016,2 hPa 0,0 l/m 2,2 km/h (1 Bft) SO 139 0 min 0 W/m 8,5 C 8,8 C 4,8 km/h (1 Bft)
17.10.2015 03:24 8,8 C 98 % 1016,1 hPa 0,0 l/m 3,0 km/h (1 Bft) SO 146 0 min 0 W/m 8,5 C 8,8 C 4,8 km/h (1 Bft)
17.10.2015 03:27 8,8 C 98 % 1016,1 hPa 0,0 l/m 2,1 km/h (1 Bft) SO 126 0 min 0 W/m 8,5 C 8,8 C 4,8 km/h (1 Bft)
17.10.2015 03:30 8,8 C 98 % 1016,1 hPa 0,0 l/m 3,0 km/h (1 Bft) S-SO 156 0 min 0 W/m 8,5 C 8,8 C 6,4 km/h (2 Bft)
17.10.2015 03:33 8,8 C 98 % 1016,0 hPa 0,0 l/m 2,3 km/h (1 Bft) S 174 0 min 0 W/m 8,5 C 8,8 C 6,4 km/h (2 Bft)
17.10.2015 03:36 8,8 C 98 % 1016,0 hPa 0,0 l/m 2,7 km/h (1 Bft) SO 133 0 min 0 W/m 8,5 C 8,8 C 6,4 km/h (2 Bft)
17.10.2015 03:39 8,8 C 98 % 1016,1 hPa 0,0 l/m 3,1 km/h (1 Bft) SO 133 0 min 0 W/m 8,5 C 8,8 C 4,8 km/h (1 Bft)
17.10.2015 03:42 8,8 C 98 % 1016,2 hPa 0,0 l/m 2,4 km/h (1 Bft) O-SO 109 0 min 0 W/m 8,5 C 8,8 C 4,8 km/h (1 Bft)
17.10.2015 03:45 8,8 C 98 % 1016,3 hPa 0,0 l/m 2,7 km/h (1 Bft) SO 137 0 min 0 W/m 8,5 C 8,8 C 4,8 km/h (1 Bft)
17.10.2015 03:48 8,8 C 98 % 1016,4 hPa 0,0 l/m 2,5 km/h (1 Bft) S-SO 159 0 min 0 W/m 8,5 C 8,8 C 8,0 km/h (2 Bft)
17.10.2015 03:51 8,8 C 98 % 1016,5 hPa 0,0 l/m 1,6 km/h (1 Bft) S-SO 153 0 min 0 W/m 8,5 C 8,8 C 3,2 km/h (1 Bft)
17.10.2015 03:54 8,8 C 98 % 1016,4 hPa 0,0 l/m 2,7 km/h (1 Bft) SO 130 0 min 0 W/m 8,5 C 8,8 C 8,0 km/h (2 Bft)
17.10.2015 03:57 8,8 C 98 % 1016,3 hPa 0,0 l/m 2,4 km/h (1 Bft) S-SO 150 0 min 0 W/m 8,5 C 8,8 C 4,8 km/h (1 Bft)
17.10.2015 04:00 8,8 C 98 % 1016,3 hPa 0,0 l/m 3,2 km/h (1 Bft) SO 126 0 min 0 W/m 8,5 C 8,8 C 6,4 km/h (2 Bft)
17.10.2015 04:03 8,8 C 98 % 1016,1 hPa 0,0 l/m 2,8 km/h (1 Bft) S 173 0 min 0 W/m 8,5 C 8,8 C 8,0 km/h (2 Bft)
17.10.2015 04:06 8,7 C 98 % 1016,0 hPa 0,0 l/m 2,7 km/h (1 Bft) SO 144 0 min 0 W/m 8,4 C 8,7 C 6,4 km/h (2 Bft)
17.10.2015 04:09 8,7 C 98 % 1016,1 hPa 0,0 l/m 3,4 km/h (1 Bft) SO 136 0 min 0 W/m 8,4 C 8,7 C 8,0 km/h (2 Bft)
17.10.2015 04:12 8,7 C 98 % 1016,1 hPa 0,0 l/m 1,2 km/h (1 Bft) SO 136 0 min 0 W/m 8,4 C 8,7 C 3,2 km/h (1 Bft)
17.10.2015 04:15 8,7 C 98 % 1015,9 hPa 0,0 l/m 1,2 km/h (1 Bft) SO 136 0 min 0 W/m 8,4 C 8,7 C 3,2 km/h (1 Bft)
17.10.2015 04:18 8,7 C 98 % 1016,0 hPa 0,0 l/m 1,9 km/h (1 Bft) SO 136 0 min 0 W/m 8,4 C 8,7 C 4,8 km/h (1 Bft)
17.10.2015 04:21 8,7 C 98 % 1015,9 hPa 0,0 l/m 1,1 km/h (1 Bft) SO 136 0 min 0 W/m 8,4 C 8,7 C 3,2 km/h (1 Bft)
17.10.2015 04:24 8,7 C 98 % 1015,9 hPa 0,0 l/m 0,4 km/h (0 Bft) SO 136 0 min 0 W/m 8,4 C 8,7 C 1,6 km/h (1 Bft)
17.10.2015 04:27 8,7 C 98 % 1015,9 hPa 0,0 l/m 0,0 km/h (0 Bft) SO 136 0 min 0 W/m 8,4 C 8,7 C 1,6 km/h (1 Bft)
17.10.2015 04:30 8,7 C 98 % 1016,0 hPa 0,0 l/m 0,6 km/h (0 Bft) SO 136 0 min 0 W/m 8,4 C 8,7 C 1,6 km/h (1 Bft)
17.10.2015 04:33 8,7 C 98 % 1016,1 hPa 0,0 l/m 0,0 km/h (0 Bft) SO 136 0 min 0 W/m 8,4 C 8,7 C 1,6 km/h (1 Bft)
17.10.2015 04:36 8,7 C 98 % 1016,1 hPa 0,0 l/m 0,0 km/h (0 Bft) SO 136 0 min 0 W/m 8,4 C 8,7 C 1,6 km/h (1 Bft)
17.10.2015 04:39 8,7 C 98 % 1016,1 hPa 0,0 l/m 0,3 km/h (0 Bft) SO 136 0 min 0 W/m 8,4 C 8,7 C 1,6 km/h (1 Bft)
17.10.2015 04:42 8,7 C 98 % 1016,3 hPa 0,0 l/m 0,6 km/h (0 Bft) SO 136 0 min 0 W/m 8,4 C 8,7 C 1,6 km/h (1 Bft)
17.10.2015 04:45 8,7 C 98 % 1016,3 hPa 0,0 l/m 0,7 km/h (0 Bft) SO 136 0 min 0 W/m 8,4 C 8,7 C 3,2 km/h (1 Bft)
17.10.2015 04:48 8,7 C 98 % 1016,3 hPa 0,0 l/m 0,5 km/h (0 Bft) SO 136 0 min 0 W/m 8,4 C 8,7 C 3,2 km/h (1 Bft)
17.10.2015 04:51 8,7 C 98 % 1016,2 hPa 0,0 l/m 1,1 km/h (1 Bft) SO 136 0 min 0 W/m 8,4 C 8,7 C 4,8 km/h (1 Bft)
17.10.2015 04:54 8,7 C 98 % 1016,1 hPa 0,0 l/m 1,0 km/h (0 Bft) SO 136 0 min 0 W/m 8,4 C 8,7 C 3,2 km/h (1 Bft)
17.10.2015 04:57 8,6 C 98 % 1016,2 hPa 0,0 l/m 1,6 km/h (1 Bft) SO 136 0 min 0 W/m 8,3 C 8,6 C 4,8 km/h (1 Bft)
17.10.2015 05:00 8,6 C 98 % 1016,1 hPa 0,0 l/m 0,4 km/h (0 Bft) SO 136 0 min 0 W/m 8,3 C 8,6 C 1,6 km/h (1 Bft)
17.10.2015 05:03 8,6 C 98 % 1016,2 hPa 0,0 l/m 1,9 km/h (1 Bft) SO 136 0 min 0 W/m 8,3 C 8,6 C 4,8 km/h (1 Bft)
17.10.2015 05:06 8,5 C 98 % 1016,2 hPa 0,0 l/m 3,1 km/h (1 Bft) SO 130 0 min 0 W/m 8,2 C 8,5 C 6,4 km/h (2 Bft)
17.10.2015 05:09 8,4 C 98 % 1016,2 hPa 0,0 l/m 1,1 km/h (1 Bft) SO 130 0 min 0 W/m 8,1 C 8,4 C 3,2 km/h (1 Bft)
17.10.2015 05:12 8,4 C 98 % 1016,1 hPa 0,0 l/m 0,3 km/h (0 Bft) SO 130 0 min 0 W/m 8,1 C 8,4 C 1,6 km/h (1 Bft)
17.10.2015 05:15 8,4 C 98 % 1016,1 hPa 0,0 l/m 1,7 km/h (1 Bft) SO 130 0 min 0 W/m 8,1 C 8,4 C 4,8 km/h (1 Bft)
17.10.2015 05:18 8,4 C 98 % 1016,0 hPa 0,0 l/m 0,8 km/h (0 Bft) SO 130 0 min 0 W/m 8,1 C 8,4 C 3,2 km/h (1 Bft)
17.10.2015 05:21 8,4 C 98 % 1015,9 hPa 0,0 l/m 0,5 km/h (0 Bft) SO 130 0 min 0 W/m 8,1 C 8,4 C 3,2 km/h (1 Bft)
17.10.2015 05:24 8,4 C 98 % 1016,0 hPa 0,0 l/m 0,2 km/h (0 Bft) SO 130 0 min 0 W/m 8,1 C 8,4 C 1,6 km/h (1 Bft)
17.10.2015 05:27 8,4 C 98 % 1015,9 hPa 0,0 l/m 0,6 km/h (0 Bft) SO 130 0 min 0 W/m 8,1 C 8,4 C 1,6 km/h (1 Bft)
17.10.2015 05:30 8,4 C 98 % 1016,0 hPa 0,0 l/m 0,3 km/h (0 Bft) SO 130 0 min 0 W/m 8,1 C 8,4 C 1,6 km/h (1 Bft)
17.10.2015 05:33 8,4 C 98 % 1016,0 hPa 0,0 l/m 1,3 km/h (1 Bft) SO 130 0 min 0 W/m 8,1 C 8,4 C 3,2 km/h (1 Bft)
17.10.2015 05:36 8,4 C 98 % 1016,0 hPa 0,0 l/m 1,7 km/h (1 Bft) SO 130 0 min 0 W/m 8,1 C 8,4 C 3,2 km/h (1 Bft)
17.10.2015 05:39 8,4 C 98 % 1015,9 hPa 0,0 l/m 1,7 km/h (1 Bft) SO 142 0 min 0 W/m 8,1 C 8,4 C 4,8 km/h (1 Bft)
17.10.2015 05:42 8,3 C 98 % 1016,1 hPa 0,0 l/m 3,1 km/h (1 Bft) SO 127 0 min 0 W/m 8,0 C 8,3 C 6,4 km/h (2 Bft)
17.10.2015 05:45 8,3 C 98 % 1016,1 hPa 0,0 l/m 3,9 km/h (1 Bft) O-SO 119 0 min 0 W/m 8,0 C 8,3 C 8,0 km/h (2 Bft)
17.10.2015 05:48 8,3 C 98 % 1016,0 hPa 0,0 l/m 3,9 km/h (1 Bft) SO 142 0 min 0 W/m 8,0 C 8,3 C 6,4 km/h (2 Bft)
17.10.2015 05:51 8,2 C 98 % 1015,9 hPa 0,0 l/m 2,3 km/h (1 Bft) SO 143 0 min 0 W/m 7,9 C 8,2 C 4,8 km/h (1 Bft)
17.10.2015 05:54 8,2 C 98 % 1015,9 hPa 0,0 l/m 2,6 km/h (1 Bft) SO 136 0 min 0 W/m 7,9 C 8,2 C 6,4 km/h (2 Bft)
17.10.2015 05:57 8,2 C 98 % 1015,8 hPa 0,0 l/m 1,7 km/h (1 Bft) SO 136 0 min 0 W/m 7,9 C 8,2 C 4,8 km/h (1 Bft)
17.10.2015 06:00 8,2 C 98 % 1015,9 hPa 0,0 l/m 3,1 km/h (1 Bft) SO 136 0 min 0 W/m 7,9 C 8,2 C 4,8 km/h (1 Bft)
17.10.2015 06:03 8,1 C 98 % 1015,9 hPa 0,0 l/m 2,4 km/h (1 Bft) SO 136 0 min 0 W/m 7,8 C 8,1 C 4,8 km/h (1 Bft)
17.10.2015 06:06 8,1 C 98 % 1015,9 hPa 0,0 l/m 0,8 km/h (0 Bft) SO 136 0 min 0 W/m 7,8 C 8,1 C 3,2 km/h (1 Bft)
17.10.2015 06:09 8,1 C 98 % 1015,9 hPa 0,0 l/m 2,3 km/h (1 Bft) SO 136 0 min 0 W/m 7,8 C 8,1 C 4,8 km/h (1 Bft)
17.10.2015 06:12 8,1 C 98 % 1016,0 hPa 0,0 l/m 0,2 km/h (0 Bft) SO 136 0 min 0 W/m 7,8 C 8,1 C 1,6 km/h (1 Bft)
17.10.2015 06:15 8,1 C 98 % 1016,1 hPa 0,0 l/m 0,4 km/h (0 Bft) SO 136 0 min 0 W/m 7,8 C 8,1 C 1,6 km/h (1 Bft)
17.10.2015 06:18 8,1 C 98 % 1016,1 hPa 0,0 l/m 1,5 km/h (1 Bft) SO 136 0 min 0 W/m 7,8 C 8,1 C 3,2 km/h (1 Bft)
17.10.2015 06:21 8,1 C 98 % 1016,1 hPa 0,0 l/m 1,2 km/h (1 Bft) SO 136 0 min 0 W/m 7,8 C 8,1 C 3,2 km/h (1 Bft)
17.10.2015 06:24 8,1 C 98 % 1016,1 hPa 0,0 l/m 1,4 km/h (1 Bft) SO 136 0 min 0 W/m 7,8 C 8,1 C 3,2 km/h (1 Bft)
17.10.2015 06:27 8,1 C 98 % 1016,2 hPa 0,0 l/m 0,9 km/h (0 Bft) SO 136 0 min 0 W/m 7,8 C 8,1 C 3,2 km/h (1 Bft)
17.10.2015 06:30 8,1 C 98 % 1016,2 hPa 0,0 l/m 1,9 km/h (1 Bft) SO 136 0 min 0 W/m 7,8 C 8,1 C 3,2 km/h (1 Bft)
17.10.2015 06:33 8,1 C 98 % 1016,1 hPa 0,0 l/m 2,3 km/h (1 Bft) SO 136 0 min 0 W/m 7,8 C 8,1 C 4,8 km/h (1 Bft)
17.10.2015 06:36 8,1 C 98 % 1016,2 hPa 0,0 l/m 3,9 km/h (1 Bft) S-SO 160 0 min 0 W/m 7,8 C 8,1 C 9,7 km/h (2 Bft)
17.10.2015 06:39 8,1 C 98 % 1016,2 hPa 0,0 l/m 3,2 km/h (1 Bft) S-SO 148 0 min 0 W/m 7,8 C 8,1 C 6,4 km/h (2 Bft)
17.10.2015 06:42 8,1 C 98 % 1016,2 hPa 0,0 l/m 3,4 km/h (1 Bft) S-SO 160 0 min 0 W/m 7,8 C 8,1 C 6,4 km/h (2 Bft)
17.10.2015 06:45 8,1 C 98 % 1016,2 hPa 0,0 l/m 3,7 km/h (1 Bft) SO 135 0 min 0 W/m 7,8 C 8,1 C 11,3 km/h (2 Bft)
17.10.2015 06:48 8,1 C 98 % 1016,2 hPa 0,0 l/m 5,8 km/h (2 Bft) S-SO 152 0 min 0 W/m 7,8 C 8,1 C 11,3 km/h (2 Bft)
17.10.2015 06:51 8,1 C 98 % 1016,2 hPa 0,0 l/m 5,0 km/h (1 Bft) S-SO 157 0 min 0 W/m 7,8 C 8,1 C 11,3 km/h (2 Bft)
17.10.2015 06:54 8,1 C 98 % 1016,2 hPa 0,0 l/m 3,5 km/h (1 Bft) SO 140 0 min 0 W/m 7,8 C 8,1 C 8,0 km/h (2 Bft)
17.10.2015 06:57 8,0 C 98 % 1016,2 hPa 0,0 l/m 4,0 km/h (1 Bft) SO 140 0 min 0 W/m 7,7 C 8,0 C 8,0 km/h (2 Bft)
17.10.2015 07:00 8,0 C 98 % 1016,1 hPa 0,0 l/m 4,0 km/h (1 Bft) O-SO 123 0 min 0 W/m 7,7 C 8,0 C 9,7 km/h (2 Bft)
17.10.2015 07:03 8,0 C 98 % 1016,2 hPa 0,0 l/m 5,5 km/h (2 Bft) S-SO 154 0 min 0 W/m 7,7 C 8,0 C 11,3 km/h (2 Bft)
17.10.2015 07:06 7,9 C 98 % 1016,2 hPa 0,0 l/m 4,5 km/h (1 Bft) SO 131 0 min 0 W/m 7,6 C 7,9 C 11,3 km/h (2 Bft)
17.10.2015 07:09 7,9 C 98 % 1016,2 hPa 0,0 l/m 3,7 km/h (1 Bft) O-SO 115 0 min 0 W/m 7,6 C 7,9 C 8,0 km/h (2 Bft)
17.10.2015 07:12 7,9 C 98 % 1016,2 hPa 0,0 l/m 3,7 km/h (1 Bft) SO 132 0 min 0 W/m 7,6 C 7,9 C 8,0 km/h (2 Bft)
17.10.2015 07:15 7,8 C 98 % 1016,2 hPa 0,0 l/m 3,9 km/h (1 Bft) SO 144 0 min 0 W/m 7,5 C 7,8 C 8,0 km/h (2 Bft)
17.10.2015 07:18 7,8 C 98 % 1016,2 hPa 0,0 l/m 2,7 km/h (1 Bft) SO 144 0 min 0 W/m 7,5 C 7,8 C 6,4 km/h (2 Bft)
17.10.2015 07:21 7,8 C 98 % 1016,1 hPa 0,0 l/m 2,9 km/h (1 Bft) S 191 0 min 0 W/m 7,5 C 7,8 C 6,4 km/h (2 Bft)
17.10.2015 07:24 7,8 C 98 % 1016,1 hPa 0,0 l/m 3,0 km/h (1 Bft) SO 136 0 min 0 W/m 7,5 C 7,8 C 6,4 km/h (2 Bft)
17.10.2015 07:27 7,8 C 98 % 1016,1 hPa 0,0 l/m 2,3 km/h (1 Bft) O-SO 116 0 min 0 W/m 7,5 C 7,8 C 4,8 km/h (1 Bft)
17.10.2015 07:30 7,8 C 98 % 1016,1 hPa 0,0 l/m 2,8 km/h (1 Bft) SO 124 0 min 0 W/m 7,5 C 7,8 C 4,8 km/h (1 Bft)
17.10.2015 07:33 7,8 C 98 % 1016,1 hPa 0,0 l/m 2,5 km/h (1 Bft) SO 124 0 min 0 W/m 7,5 C 7,8 C 6,4 km/h (2 Bft)
17.10.2015 07:36 7,8 C 98 % 1016,2 hPa 0,0 l/m 1,5 km/h (1 Bft) SO 124 0 min 0 W/m 7,5 C 7,8 C 3,2 km/h (1 Bft)
17.10.2015 07:39 7,8 C 98 % 1016,2 hPa 0,0 l/m 1,9 km/h (1 Bft) SO 124 0 min 0 W/m 7,5 C 7,8 C 3,2 km/h (1 Bft)
17.10.2015 07:42 7,8 C 98 % 1016,1 hPa 0,0 l/m 2,3 km/h (1 Bft) SO 142 0 min 0 W/m 7,5 C 7,8 C 4,8 km/h (1 Bft)
17.10.2015 07:45 7,8 C 98 % 1015,9 hPa 0,0 l/m 1,3 km/h (1 Bft) SO 142 0 min 0 W/m 7,5 C 7,8 C 3,2 km/h (1 Bft)
17.10.2015 07:48 7,8 C 98 % 1016,0 hPa 0,0 l/m 2,3 km/h (1 Bft) SO 138 0 min 0 W/m 7,5 C 7,8 C 4,8 km/h (1 Bft)
17.10.2015 07:51 7,8 C 98 % 1015,9 hPa 0,0 l/m 2,0 km/h (1 Bft) SO 138 0 min 0 W/m 7,5 C 7,8 C 4,8 km/h (1 Bft)
17.10.2015 07:54 7,8 C 98 % 1016,0 hPa 0,0 l/m 2,1 km/h (1 Bft) SO 138 0 min 0 W/m 7,5 C 7,8 C 3,2 km/h (1 Bft)
17.10.2015 07:57 7,8 C 98 % 1016,0 hPa 0,0 l/m 1,2 km/h (1 Bft) SO 138 0 min 0 W/m 7,5 C 7,8 C 3,2 km/h (1 Bft)
17.10.2015 08:00 7,8 C 98 % 1016,1 hPa 0,0 l/m 1,5 km/h (1 Bft) SO 138 0 min 0 W/m 7,5 C 7,8 C 3,2 km/h (1 Bft)
17.10.2015 08:03 7,8 C 98 % 1016,2 hPa 0,0 l/m 1,1 km/h (1 Bft) SO 138 0 min 0 W/m 7,5 C 7,8 C 3,2 km/h (1 Bft)
17.10.2015 08:06 7,8 C 98 % 1016,2 hPa 0,0 l/m 2,0 km/h (1 Bft) SO 138 0 min 0 W/m 7,5 C 7,8 C 4,8 km/h (1 Bft)
17.10.2015 08:09 7,8 C 98 % 1016,2 hPa 0,0 l/m 1,6 km/h (1 Bft) SO 138 0 min 0 W/m 7,5 C 7,8 C 3,2 km/h (1 Bft)
17.10.2015 08:12 7,8 C 98 % 1016,3 hPa 0,0 l/m 1,8 km/h (1 Bft) SO 138 0 min 0 W/m 7,5 C 7,8 C 4,8 km/h (1 Bft)
17.10.2015 08:15 7,8 C 98 % 1016,4 hPa 0,0 l/m 3,0 km/h (1 Bft) O-SO 107 0 min 0 W/m 7,5 C 7,8 C 4,8 km/h (1 Bft)
17.10.2015 08:18 7,8 C 98 % 1016,4 hPa 0,0 l/m 1,5 km/h (1 Bft) O-SO 122 0 min 0 W/m 7,5 C 7,8 C 3,2 km/h (1 Bft)
17.10.2015 08:21 7,8 C 98 % 1016,4 hPa 0,0 l/m 2,4 km/h (1 Bft) O-SO 122 0 min 0 W/m 7,5 C 7,8 C 3,2 km/h (1 Bft)
17.10.2015 08:24 7,8 C 98 % 1016,5 hPa 0,0 l/m 1,0 km/h (0 Bft) O-SO 121 0 min 0 W/m 7,5 C 7,8 C 3,2 km/h (1 Bft)
17.10.2015 08:27 7,8 C 98 % 1016,5 hPa 0,0 l/m 0,6 km/h (0 Bft) O-SO 121 0 min 0 W/m 7,5 C 7,8 C 3,2 km/h (1 Bft)
17.10.2015 08:30 7,8 C 98 % 1016,5 hPa 0,0 l/m 1,2 km/h (1 Bft) O-SO 121 0 min 0 W/m 7,5 C 7,8 C 3,2 km/h (1 Bft)
17.10.2015 08:33 7,8 C 98 % 1016,6 hPa 0,0 l/m 0,7 km/h (0 Bft) O-SO 121 0 min 0 W/m 7,5 C 7,8 C 3,2 km/h (1 Bft)
17.10.2015 08:36 7,8 C 98 % 1016,6 hPa 0,0 l/m 2,3 km/h (1 Bft) O-SO 120 0 min 5 W/m 7,5 C 7,8 C 4,8 km/h (1 Bft)
17.10.2015 08:39 7,8 C 98 % 1016,5 hPa 0,0 l/m 0,8 km/h (0 Bft) O-SO 120 0 min 7 W/m 7,5 C 7,8 C 1,6 km/h (1 Bft)
17.10.2015 08:42 7,8 C 98 % 1016,5 hPa 0,0 l/m 1,9 km/h (1 Bft) O-SO 120 0 min 5 W/m 7,5 C 7,8 C 3,2 km/h (1 Bft)
17.10.2015 08:45 7,8 C 98 % 1016,6 hPa 0,0 l/m 1,0 km/h (0 Bft) O-SO 120 0 min 7 W/m 7,5 C 7,8 C 3,2 km/h (1 Bft)
17.10.2015 08:48 7,8 C 98 % 1016,6 hPa 0,0 l/m 1,6 km/h (1 Bft) O-SO 120 0 min 9 W/m 7,5 C 7,8 C 3,2 km/h (1 Bft)
17.10.2015 08:51 7,8 C 98 % 1016,6 hPa 0,0 l/m 1,6 km/h (1 Bft) O-SO 119 0 min 9 W/m 7,5 C 7,8 C 3,2 km/h (1 Bft)
17.10.2015 08:54 7,9 C 98 % 1016,6 hPa 0,0 l/m 1,5 km/h (1 Bft) SO 130 0 min 9 W/m 7,6 C 7,9 C 3,2 km/h (1 Bft)
17.10.2015 08:57 7,9 C 98 % 1016,7 hPa 0,0 l/m 1,4 km/h (1 Bft) SO 130 0 min 7 W/m 7,6 C 7,9 C 4,8 km/h (1 Bft)
17.10.2015 09:00 7,8 C 98 % 1016,8 hPa 0,0 l/m 2,9 km/h (1 Bft) SO 131 0 min 5 W/m 7,5 C 7,8 C 6,4 km/h (2 Bft)
17.10.2015 09:03 7,9 C 98 % 1016,9 hPa 0,0 l/m 1,5 km/h (1 Bft) SO 131 0 min 5 W/m 7,6 C 7,9 C 3,2 km/h (1 Bft)
17.10.2015 09:06 7,9 C 98 % 1017,0 hPa 0,0 l/m 1,5 km/h (1 Bft) SO 131 0 min 7 W/m 7,6 C 7,9 C 3,2 km/h (1 Bft)
17.10.2015 09:09 7,9 C 98 % 1017,1 hPa 0,2 l/m 1,9 km/h (1 Bft) SO 138 0 min 9 W/m 7,6 C 7,9 C 4,8 km/h (1 Bft)
17.10.2015 09:12 7,9 C 98 % 1017,1 hPa 0,0 l/m 1,9 km/h (1 Bft) SO 137 0 min 12 W/m 7,6 C 7,9 C 4,8 km/h (1 Bft)
17.10.2015 09:15 7,9 C 98 % 1017,1 hPa 0,0 l/m 0,9 km/h (0 Bft) SO 137 0 min 16 W/m 7,6 C 7,9 C 3,2 km/h (1 Bft)
17.10.2015 09:18 7,9 C 98 % 1017,2 hPa 0,0 l/m 1,2 km/h (1 Bft) SO 137 0 min 18 W/m 7,6 C 7,9 C 3,2 km/h (1 Bft)
17.10.2015 09:21 7,9 C 98 % 1017,2 hPa 0,2 l/m 3,2 km/h (1 Bft) SO 126 0 min 18 W/m 7,6 C 7,9 C 6,4 km/h (2 Bft)
17.10.2015 09:24 7,9 C 98 % 1017,1 hPa 0,0 l/m 2,6 km/h (1 Bft) SO 132 0 min 21 W/m 7,6 C 7,9 C 4,8 km/h (1 Bft)
17.10.2015 09:27 8,0 C 98 % 1017,0 hPa 0,0 l/m 0,0 km/h (0 Bft) SO 132 0 min 32 W/m 7,7 C 8,0 C 0,0 km/h (0 Bft)
17.10.2015 09:30 8,1 C 98 % 1017,2 hPa 0,0 l/m 2,2 km/h (1 Bft) SO 132 0 min 37 W/m 7,8 C 8,1 C 3,2 km/h (1 Bft)
17.10.2015 09:33 8,1 C 98 % 1017,1 hPa 0,0 l/m 2,0 km/h (1 Bft) SO 132 0 min 44 W/m 7,8 C 8,1 C 3,2 km/h (1 Bft)
17.10.2015 09:36 8,1 C 98 % 1017,1 hPa 0,0 l/m 2,0 km/h (1 Bft) SO 132 0 min 70 W/m 7,8 C 8,1 C 3,2 km/h (1 Bft)
17.10.2015 09:39 8,2 C 98 % 1017,1 hPa 0,2 l/m 1,7 km/h (1 Bft) SO 144 0 min 76 W/m 7,9 C 8,2 C 3,2 km/h (1 Bft)
17.10.2015 09:42 8,3 C 98 % 1017,1 hPa 0,0 l/m 0,8 km/h (0 Bft) SO 144 0 min 70 W/m 8,0 C 8,3 C 3,2 km/h (1 Bft)
17.10.2015 09:45 8,3 C 98 % 1017,1 hPa 0,0 l/m 2,7 km/h (1 Bft) SO 145 0 min 62 W/m 8,0 C 8,3 C 4,8 km/h (1 Bft)
17.10.2015 09:48 8,3 C 98 % 1017,1 hPa 0,0 l/m 2,5 km/h (1 Bft) S-SO 148 0 min 56 W/m 8,0 C 8,3 C 4,8 km/h (1 Bft)
17.10.2015 09:51 8,3 C 98 % 1017,2 hPa 0,0 l/m 1,7 km/h (1 Bft) S-SO 148 0 min 65 W/m 8,0 C 8,3 C 4,8 km/h (1 Bft)
17.10.2015 09:54 8,4 C 98 % 1017,3 hPa 0,0 l/m 1,9 km/h (1 Bft) SO 145 0 min 74 W/m 8,1 C 8,4 C 4,8 km/h (1 Bft)
17.10.2015 09:57 8,5 C 98 % 1017,3 hPa 0,0 l/m 1,9 km/h (1 Bft) SO 145 0 min 81 W/m 8,2 C 8,5 C 4,8 km/h (1 Bft)
17.10.2015 10:00 8,5 C 98 % 1017,3 hPa 0,0 l/m 2,7 km/h (1 Bft) SO 145 0 min 107 W/m 8,2 C 8,5 C 4,8 km/h (1 Bft)
17.10.2015 10:03 8,6 C 98 % 1017,4 hPa 0,0 l/m 2,4 km/h (1 Bft) O-SO 120 0 min 93 W/m 8,3 C 8,6 C 4,8 km/h (1 Bft)
17.10.2015 10:06 8,6 C 98 % 1017,5 hPa 0,0 l/m 1,9 km/h (1 Bft) O-SO 120 0 min 69 W/m 8,3 C 8,6 C 4,8 km/h (1 Bft)
17.10.2015 10:09 8,6 C 98 % 1017,5 hPa 0,0 l/m 3,0 km/h (1 Bft) SO 134 0 min 46 W/m 8,3 C 8,6 C 4,8 km/h (1 Bft)
17.10.2015 10:12 8,5 C 98 % 1017,6 hPa 0,0 l/m 2,3 km/h (1 Bft) SO 132 0 min 47 W/m 8,2 C 8,5 C 4,8 km/h (1 Bft)
17.10.2015 10:15 8,4 C 98 % 1017,6 hPa 0,0 l/m 1,9 km/h (1 Bft) SO 140 0 min 56 W/m 8,1 C 8,4 C 3,2 km/h (1 Bft)
17.10.2015 10:18 8,4 C 98 % 1017,6 hPa 0,0 l/m 3,0 km/h (1 Bft) S-SO 153 0 min 49 W/m 8,1 C 8,4 C 6,4 km/h (2 Bft)
17.10.2015 10:21 8,5 C 98 % 1017,6 hPa 0,0 l/m 1,7 km/h (1 Bft) SO 145 0 min 54 W/m 8,2 C 8,5 C 3,2 km/h (1 Bft)
17.10.2015 10:24 8,5 C 98 % 1017,6 hPa 0,0 l/m 2,4 km/h (1 Bft) SO 145 0 min 60 W/m 8,2 C 8,5 C 4,8 km/h (1 Bft)
17.10.2015 10:27 8,5 C 98 % 1017,7 hPa 0,0 l/m 2,6 km/h (1 Bft) SO 144 0 min 60 W/m 8,2 C 8,5 C 4,8 km/h (1 Bft)
17.10.2015 10:30 8,6 C 98 % 1017,7 hPa 0,0 l/m 2,1 km/h (1 Bft) SO 144 0 min 60 W/m 8,3 C 8,6 C 4,8 km/h (1 Bft)
17.10.2015 10:33 8,5 C 98 % 1017,7 hPa 0,0 l/m 2,5 km/h (1 Bft) SO 144 0 min 72 W/m 8,2 C 8,5 C 4,8 km/h (1 Bft)
17.10.2015 10:36 8,6 C 98 % 1017,6 hPa 0,0 l/m 1,9 km/h (1 Bft) SO 144 0 min 104 W/m 8,3 C 8,6 C 4,8 km/h (1 Bft)
17.10.2015 10:39 8,6 C 98 % 1017,7 hPa 0,0 l/m 3,1 km/h (1 Bft) SO 146 0 min 91 W/m 8,3 C 8,6 C 4,8 km/h (1 Bft)
17.10.2015 10:42 8,6 C 98 % 1017,7 hPa 0,0 l/m 1,3 km/h (1 Bft) O 96 0 min 105 W/m 8,3 C 8,6 C 4,8 km/h (1 Bft)
17.10.2015 10:45 8,6 C 98 % 1017,7 hPa 0,0 l/m 3,9 km/h (1 Bft) SO 126 0 min 121 W/m 8,3 C 8,6 C 6,4 km/h (2 Bft)
17.10.2015 10:48 8,6 C 98 % 1017,6 hPa 0,0 l/m 3,2 km/h (1 Bft) O-SO 110 0 min 135 W/m 8,3 C 8,6 C 8,0 km/h (2 Bft)
17.10.2015 10:51 8,7 C 98 % 1017,7 hPa 0,0 l/m 3,1 km/h (1 Bft) SO 145 0 min 93 W/m 8,4 C 8,7 C 9,7 km/h (2 Bft)
17.10.2015 10:54 8,7 C 98 % 1017,7 hPa 0,0 l/m 2,0 km/h (1 Bft) SO 145 0 min 104 W/m 8,4 C 8,7 C 4,8 km/h (1 Bft)
17.10.2015 10:57 8,7 C 98 % 1017,7 hPa 0,0 l/m 1,3 km/h (1 Bft) SO 144 0 min 95 W/m 8,4 C 8,7 C 3,2 km/h (1 Bft)
17.10.2015 11:00 8,7 C 98 % 1017,7 hPa 0,0 l/m 1,2 km/h (1 Bft) SO 144 0 min 79 W/m 8,4 C 8,7 C 3,2 km/h (1 Bft)
17.10.2015 11:03 8,8 C 97 % 1017,7 hPa 0,0 l/m 0,8 km/h (0 Bft) SO 144 0 min 84 W/m 8,4 C 8,8 C 3,2 km/h (1 Bft)
17.10.2015 11:06 8,8 C 97 % 1017,7 hPa 0,0 l/m 1,0 km/h (0 Bft) SO 144 0 min 88 W/m 8,4 C 8,8 C 3,2 km/h (1 Bft)
17.10.2015 11:09 8,8 C 98 % 1017,7 hPa 0,0 l/m 0,4 km/h (0 Bft) SO 144 0 min 102 W/m 8,5 C 8,8 C 3,2 km/h (1 Bft)
17.10.2015 11:12 9,0 C 98 % 1017,7 hPa 0,0 l/m 0,9 km/h (0 Bft) SO 144 0 min 91 W/m 8,7 C 9,0 C 3,2 km/h (1 Bft)
17.10.2015 11:15 9,0 C 98 % 1017,7 hPa 0,0 l/m 1,0 km/h (0 Bft) SO 144 0 min 83 W/m 8,7 C 9,0 C 3,2 km/h (1 Bft)
17.10.2015 11:18 8,9 C 97 % 1017,8 hPa 0,0 l/m 2,2 km/h (1 Bft) O 86 0 min 76 W/m 8,4 C 8,9 C 4,8 km/h (1 Bft)
17.10.2015 11:21 8,8 C 97 % 1017,8 hPa 0,0 l/m 1,8 km/h (1 Bft) O 91 0 min 72 W/m 8,4 C 8,8 C 3,2 km/h (1 Bft)
17.10.2015 11:24 8,8 C 97 % 1017,9 hPa 0,0 l/m 1,7 km/h (1 Bft) O 91 0 min 91 W/m 8,4 C 8,8 C 3,2 km/h (1 Bft)
17.10.2015 11:27 8,8 C 97 % 1017,9 hPa 0,0 l/m 2,5 km/h (1 Bft) O 82 0 min 81 W/m 8,4 C 8,8 C 6,4 km/h (2 Bft)
17.10.2015 11:30 8,8 C 97 % 1017,9 hPa 0,0 l/m 0,9 km/h (0 Bft) O 84 0 min 76 W/m 8,4 C 8,8 C 3,2 km/h (1 Bft)
17.10.2015 11:33 8,8 C 97 % 1017,9 hPa 0,0 l/m 0,8 km/h (0 Bft) O 84 0 min 77 W/m 8,4 C 8,8 C 3,2 km/h (1 Bft)
17.10.2015 11:36 8,9 C 97 % 1017,9 hPa 0,0 l/m 0,8 km/h (0 Bft) O 85 0 min 60 W/m 8,4 C 8,9 C 3,2 km/h (1 Bft)
17.10.2015 11:39 9,1 C 97 % 1017,9 hPa 0,0 l/m 0,7 km/h (0 Bft) O 85 0 min 74 W/m 8,6 C 9,1 C 3,2 km/h (1 Bft)
17.10.2015 11:42 9,1 C 97 % 1017,8 hPa 0,0 l/m 1,6 km/h (1 Bft) O 85 0 min 91 W/m 8,6 C 9,1 C 3,2 km/h (1 Bft)
17.10.2015 11:45 9,1 C 97 % 1017,8 hPa 0,0 l/m 0,7 km/h (0 Bft) O 85 0 min 102 W/m 8,6 C 9,1 C 3,2 km/h (1 Bft)
17.10.2015 11:48 9,2 C 97 % 1017,8 hPa 0,0 l/m 1,1 km/h (1 Bft) O 85 0 min 109 W/m 8,7 C 9,2 C 3,2 km/h (1 Bft)
17.10.2015 11:51 9,3 C 97 % 1017,8 hPa 0,0 l/m 1,7 km/h (1 Bft) O 85 0 min 105 W/m 8,8 C 9,3 C 3,2 km/h (1 Bft)
17.10.2015 11:54 9,2 C 97 % 1017,8 hPa 0,0 l/m 1,6 km/h (1 Bft) O 85 0 min 107 W/m 8,7 C 9,2 C 4,8 km/h (1 Bft)
17.10.2015 11:57 9,2 C 97 % 1017,8 hPa 0,0 l/m 2,2 km/h (1 Bft) O 88 0 min 91 W/m 8,7 C 9,2 C 4,8 km/h (1 Bft)
17.10.2015 12:00 9,1 C 97 % 1017,9 hPa 0,0 l/m 1,9 km/h (1 Bft) O-NO 78 0 min 98 W/m 8,6 C 9,1 C 4,8 km/h (1 Bft)
17.10.2015 12:03 9,1 C 97 % 1017,8 hPa 0,0 l/m 2,4 km/h (1 Bft) S-SO 151 0 min 90 W/m 8,6 C 9,1 C 4,8 km/h (1 Bft)
17.10.2015 12:06 9,1 C 97 % 1017,8 hPa 0,0 l/m 2,3 km/h (1 Bft) SO 139 0 min 88 W/m 8,6 C 9,1 C 4,8 km/h (1 Bft)
17.10.2015 12:09 9,1 C 96 % 1017,8 hPa 0,0 l/m 1,7 km/h (1 Bft) O-SO 105 0 min 91 W/m 8,5 C 9,1 C 3,2 km/h (1 Bft)
17.10.2015 12:12 9,1 C 97 % 1017,9 hPa 0,0 l/m 3,2 km/h (1 Bft) O 88 0 min 83 W/m 8,6 C 9,1 C 6,4 km/h (2 Bft)
17.10.2015 12:15 9,0 C 96 % 1017,9 hPa 0,0 l/m 2,2 km/h (1 Bft) SO 136 0 min 81 W/m 8,4 C 9,0 C 4,8 km/h (1 Bft)
17.10.2015 12:18 9,0 C 96 % 1017,9 hPa 0,0 l/m 1,8 km/h (1 Bft) SO 135 0 min 86 W/m 8,4 C 9,0 C 3,2 km/h (1 Bft)
17.10.2015 12:21 9,1 C 96 % 1017,9 hPa 0,0 l/m 1,3 km/h (1 Bft) SO 135 0 min 81 W/m 8,5 C 9,1 C 3,2 km/h (1 Bft)
17.10.2015 12:24 9,1 C 96 % 1017,8 hPa 0,0 l/m 1,3 km/h (1 Bft) SO 135 0 min 98 W/m 8,5 C 9,1 C 3,2 km/h (1 Bft)
17.10.2015 12:27 9,2 C 96 % 1017,9 hPa 0,0 l/m 0,5 km/h (0 Bft) SO 135 0 min 105 W/m 8,6 C 9,2 C 1,6 km/h (1 Bft)
17.10.2015 12:30 9,2 C 96 % 1017,8 hPa 0,0 l/m 1,2 km/h (1 Bft) SO 135 0 min 109 W/m 8,6 C 9,2 C 3,2 km/h (1 Bft)
17.10.2015 12:33 9,2 C 96 % 1017,8 hPa 0,0 l/m 1,5 km/h (1 Bft) SO 135 0 min 104 W/m 8,6 C 9,2 C 3,2 km/h (1 Bft)
17.10.2015 12:36 9,3 C 96 % 1017,9 hPa 0,0 l/m 1,3 km/h (1 Bft) SO 135 0 min 77 W/m 8,7 C 9,3 C 3,2 km/h (1 Bft)
17.10.2015 12:39 9,3 C 95 % 1017,9 hPa 0,0 l/m 1,8 km/h (1 Bft) SO 135 0 min 72 W/m 8,5 C 9,3 C 3,2 km/h (1 Bft)
17.10.2015 12:42 9,2 C 96 % 1017,9 hPa 0,0 l/m 1,9 km/h (1 Bft) O-SO 114 0 min 70 W/m 8,6 C 9,2 C 4,8 km/h (1 Bft)
17.10.2015 12:45 9,3 C 96 % 1017,8 hPa 0,0 l/m 1,4 km/h (1 Bft) O-SO 116 0 min 70 W/m 8,7 C 9,3 C 3,2 km/h (1 Bft)
17.10.2015 12:48 9,2 C 95 % 1017,8 hPa 0,0 l/m 1,0 km/h (0 Bft) O-SO 116 0 min 91 W/m 8,4 C 9,2 C 3,2 km/h (1 Bft)
17.10.2015 12:51 9,3 C 96 % 1017,8 hPa 0,0 l/m 0,8 km/h (0 Bft) O-SO 116 0 min 91 W/m 8,7 C 9,3 C 3,2 km/h (1 Bft)
17.10.2015 12:54 9,3 C 96 % 1017,8 hPa 0,0 l/m 1,2 km/h (1 Bft) O-SO 116 0 min 95 W/m 8,7 C 9,3 C 3,2 km/h (1 Bft)
17.10.2015 12:57 9,3 C 95 % 1017,8 hPa 0,0 l/m 1,4 km/h (1 Bft) O-SO 116 0 min 102 W/m 8,5 C 9,3 C 4,8 km/h (1 Bft)
17.10.2015 13:00 9,3 C 95 % 1017,8 hPa 0,0 l/m 0,7 km/h (0 Bft) O-SO 116 0 min 107 W/m 8,5 C 9,3 C 1,6 km/h (1 Bft)
17.10.2015 13:03 9,4 C 95 % 1017,8 hPa 0,0 l/m 0,2 km/h (0 Bft) O-SO 116 0 min 104 W/m 8,6 C 9,4 C 1,6 km/h (1 Bft)
17.10.2015 13:06 9,4 C 95 % 1017,9 hPa 0,0 l/m 0,7 km/h (0 Bft) O-SO 116 0 min 98 W/m 8,6 C 9,4 C 1,6 km/h (1 Bft)
17.10.2015 13:09 9,5 C 95 % 1017,8 hPa 0,0 l/m 0,4 km/h (0 Bft) O-SO 116 0 min 97 W/m 8,7 C 9,5 C 1,6 km/h (1 Bft)
17.10.2015 13:12 9,4 C 95 % 1017,8 hPa 0,0 l/m 1,1 km/h (1 Bft) O-SO 116 0 min 102 W/m 8,6 C 9,4 C 3,2 km/h (1 Bft)
17.10.2015 13:15 9,4 C 94 % 1017,8 hPa 0,0 l/m 1,6 km/h (1 Bft) O-SO 116 0 min 93 W/m 8,5 C 9,4 C 3,2 km/h (1 Bft)
17.10.2015 13:18 9,4 C 95 % 1017,7 hPa 0,0 l/m 1,2 km/h (1 Bft) O-SO 116 0 min 107 W/m 8,6 C 9,4 C 3,2 km/h (1 Bft)
17.10.2015 13:21 9,4 C 94 % 1017,8 hPa 0,0 l/m 1,1 km/h (1 Bft) O-SO 116 0 min 90 W/m 8,5 C 9,4 C 3,2 km/h (1 Bft)
17.10.2015 13:24 9,6 C 95 % 1017,8 hPa 0,0 l/m 0,6 km/h (0 Bft) O-SO 116 0 min 70 W/m 8,8 C 9,6 C 3,2 km/h (1 Bft)
17.10.2015 13:27 9,6 C 95 % 1017,8 hPa 0,0 l/m 0,7 km/h (0 Bft) O-SO 116 0 min 69 W/m 8,8 C 9,6 C 3,2 km/h (1 Bft)
17.10.2015 13:30 9,6 C 95 % 1017,8 hPa 0,0 l/m 0,5 km/h (0 Bft) O-SO 116 0 min 76 W/m 8,8 C 9,6 C 1,6 km/h (1 Bft)
17.10.2015 13:33 9,6 C 95 % 1017,8 hPa 0,0 l/m 0,5 km/h (0 Bft) O-SO 116 0 min 79 W/m 8,8 C 9,6 C 1,6 km/h (1 Bft)
17.10.2015 13:36 9,6 C 96 % 1017,8 hPa 0,0 l/m 0,5 km/h (0 Bft) O-SO 116 0 min 69 W/m 9,0 C 9,6 C 3,2 km/h (1 Bft)
17.10.2015 13:39 9,5 C 96 % 1017,8 hPa 0,0 l/m 0,8 km/h (0 Bft) O-SO 116 0 min 67 W/m 8,9 C 9,5 C 3,2 km/h (1 Bft)
17.10.2015 13:42 9,3 C 94 % 1017,8 hPa 0,0 l/m 0,3 km/h (0 Bft) O-SO 116 0 min 58 W/m 8,4 C 9,3 C 1,6 km/h (1 Bft)
17.10.2015 13:45 9,4 C 95 % 1017,9 hPa 0,0 l/m 0,2 km/h (0 Bft) O-SO 116 0 min 69 W/m 8,6 C 9,4 C 1,6 km/h (1 Bft)
17.10.2015 13:48 9,3 C 94 % 1017,9 hPa 0,0 l/m 0,9 km/h (0 Bft) O-SO 116 0 min 69 W/m 8,4 C 9,3 C 1,6 km/h (1 Bft)
17.10.2015 13:51 9,3 C 93 % 1017,9 hPa 0,0 l/m 0,1 km/h (0 Bft) O-SO 116 0 min 54 W/m 8,2 C 9,3 C 1,6 km/h (1 Bft)
17.10.2015 13:54 9,3 C 93 % 1017,8 hPa 0,0 l/m 0,0 km/h (0 Bft) O-SO 116 0 min 60 W/m 8,2 C 9,3 C 1,6 km/h (1 Bft)
17.10.2015 13:57 9,3 C 94 % 1017,8 hPa 0,0 l/m 0,2 km/h (0 Bft) O-SO 116 0 min 63 W/m 8,4 C 9,3 C 1,6 km/h (1 Bft)
17.10.2015 14:00 9,4 C 94 % 1017,9 hPa 0,0 l/m 0,4 km/h (0 Bft) O-SO 116 0 min 70 W/m 8,5 C 9,4 C 1,6 km/h (1 Bft)
17.10.2015 14:03 9,5 C 95 % 1017,8 hPa 0,0 l/m 0,3 km/h (0 Bft) O-SO 116 0 min 72 W/m 8,7 C 9,5 C 1,6 km/h (1 Bft)
17.10.2015 14:06 9,4 C 93 % 1017,8 hPa 0,0 l/m 0,0 km/h (0 Bft) O-SO 116 0 min 60 W/m 8,3 C 9,4 C 1,6 km/h (1 Bft)
17.10.2015 14:09 9,4 C 93 % 1017,8 hPa 0,0 l/m 0,1 km/h (0 Bft) O-SO 116 0 min 49 W/m 8,3 C 9,4 C 1,6 km/h (1 Bft)
17.10.2015 14:12 9,3 C 92 % 1017,8 hPa 0,0 l/m 0,0 km/h (0 Bft) O-SO 116 0 min 49 W/m 8,1 C 9,3 C 0,0 km/h (0 Bft)
17.10.2015 14:15 9,5 C 94 % 1017,8 hPa 0,0 l/m 0,0 km/h (0 Bft) O-SO 116 0 min 51 W/m 8,6 C 9,5 C 1,6 km/h (1 Bft)
17.10.2015 14:18 9,5 C 94 % 1017,8 hPa 0,0 l/m 0,0 km/h (0 Bft) O-SO 116 0 min 47 W/m 8,6 C 9,5 C 0,0 km/h (0 Bft)
17.10.2015 14:21 9,5 C 95 % 1017,8 hPa 0,0 l/m 0,0 km/h (0 Bft) O-SO 116 0 min 47 W/m 8,7 C 9,5 C 0,0 km/h (0 Bft)
17.10.2015 14:24 9,6 C 96 % 1017,8 hPa 0,0 l/m 0,0 km/h (0 Bft) O-SO 116 0 min 47 W/m 9,0 C 9,6 C 1,6 km/h (1 Bft)
17.10.2015 14:27 9,5 C 95 % 1017,8 hPa 0,0 l/m 0,2 km/h (0 Bft) O-SO 116 0 min 47 W/m 8,7 C 9,5 C 1,6 km/h (1 Bft)
17.10.2015 14:30 9,4 C 95 % 1017,7 hPa 0,0 l/m 0,1 km/h (0 Bft) O-SO 116 0 min 49 W/m 8,6 C 9,4 C 1,6 km/h (1 Bft)
17.10.2015 14:33 9,3 C 94 % 1017,7 hPa 0,0 l/m 0,1 km/h (0 Bft) O-SO 116 0 min 51 W/m 8,4 C 9,3 C 1,6 km/h (1 Bft)
17.10.2015 14:36 9,3 C 94 % 1017,8 hPa 0,0 l/m 0,0 km/h (0 Bft) O-SO 116 0 min 54 W/m 8,4 C 9,3 C 0,0 km/h (0 Bft)
17.10.2015 14:39 9,3 C 94 % 1017,8 hPa 0,0 l/m 0,0 km/h (0 Bft) O-SO 116 0 min 67 W/m 8,4 C 9,3 C 1,6 km/h (1 Bft)
17.10.2015 14:42 9,3 C 93 % 1017,8 hPa 0,0 l/m 0,0 km/h (0 Bft) O-SO 116 0 min 67 W/m 8,2 C 9,3 C 1,6 km/h (1 Bft)
17.10.2015 14:45 9,5 C 95 % 1017,7 hPa 0,0 l/m 0,0 km/h (0 Bft) O-SO 116 0 min 65 W/m 8,7 C 9,5 C 0,0 km/h (0 Bft)
17.10.2015 14:48 9,6 C 95 % 1017,8 hPa 0,0 l/m 0,0 km/h (0 Bft) O-SO 116 0 min 62 W/m 8,8 C 9,6 C 0,0 km/h (0 Bft)
17.10.2015 14:51 9,6 C 95 % 1017,8 hPa 0,0 l/m 0,4 km/h (0 Bft) O-SO 116 0 min 56 W/m 8,8 C 9,6 C 1,6 km/h (1 Bft)
17.10.2015 14:54 9,4 C 94 % 1017,8 hPa 0,0 l/m 0,4 km/h (0 Bft) O-SO 116 0 min 47 W/m 8,5 C 9,4 C 1,6 km/h (1 Bft)
17.10.2015 14:57 9,4 C 94 % 1017,8 hPa 0,0 l/m 0,0 km/h (0 Bft) O-SO 116 0 min 47 W/m 8,5 C 9,4 C 0,0 km/h (0 Bft)
17.10.2015 15:00 9,4 C 94 % 1017,8 hPa 0,0 l/m 0,2 km/h (0 Bft) O-SO 116 0 min 53 W/m 8,5 C 9,4 C 1,6 km/h (1 Bft)
17.10.2015 15:03 9,6 C 95 % 1017,9 hPa 0,0 l/m 0,7 km/h (0 Bft) O-SO 116 0 min 58 W/m 8,8 C 9,6 C 1,6 km/h (1 Bft)
17.10.2015 15:06 9,6 C 95 % 1017,9 hPa 0,0 l/m 0,0 km/h (0 Bft) O-SO 116 0 min 51 W/m 8,8 C 9,6 C 0,0 km/h (0 Bft)
17.10.2015 15:09 9,6 C 95 % 1018,0 hPa 0,0 l/m 0,1 km/h (0 Bft) O-SO 116 0 min 49 W/m 8,8 C 9,6 C 1,6 km/h (1 Bft)
17.10.2015 15:12 9,7 C 96 % 1017,9 hPa 0,0 l/m 0,3 km/h (0 Bft) O-SO 116 0 min 49 W/m 9,1 C 9,7 C 1,6 km/h (1 Bft)
17.10.2015 15:15 9,7 C 96 % 1017,9 hPa 0,0 l/m 0,0 km/h (0 Bft) O-SO 116 0 min 56 W/m 9,1 C 9,7 C 0,0 km/h (0 Bft)
17.10.2015 15:18 9,7 C 96 % 1017,9 hPa 0,0 l/m 0,0 km/h (0 Bft) O-SO 116 0 min 54 W/m 9,1 C 9,7 C 0,0 km/h (0 Bft)
17.10.2015 15:21 9,7 C 96 % 1017,8 hPa 0,0 l/m 0,0 km/h (0 Bft) O-SO 116 0 min 98 W/m 9,1 C 9,7 C 1,6 km/h (1 Bft)
17.10.2015 15:24 9,5 C 94 % 1017,8 hPa 0,0 l/m 0,0 km/h (0 Bft) O-SO 116 0 min 111 W/m 8,6 C 9,5 C 0,0 km/h (0 Bft)
17.10.2015 15:27 9,4 C 94 % 1017,8 hPa 0,0 l/m 0,2 km/h (0 Bft) O-SO 116 0 min 102 W/m 8,5 C 9,4 C 1,6 km/h (1 Bft)
17.10.2015 15:30 9,6 C 94 % 1017,8 hPa 0,0 l/m 0,4 km/h (0 Bft) O-SO 116 0 min 67 W/m 8,7 C 9,6 C 1,6 km/h (1 Bft)
17.10.2015 15:33 9,7 C 94 % 1017,8 hPa 0,0 l/m 0,2 km/h (0 Bft) O-SO 116 0 min 56 W/m 8,8 C 9,7 C 1,6 km/h (1 Bft)
17.10.2015 15:36 9,6 C 93 % 1017,8 hPa 0,0 l/m 0,2 km/h (0 Bft) O-SO 116 0 min 49 W/m 8,5 C 9,6 C 1,6 km/h (1 Bft)
17.10.2015 15:39 9,6 C 93 % 1017,9 hPa 0,0 l/m 0,0 km/h (0 Bft) O-SO 116 0 min 33 W/m 8,5 C 9,6 C 1,6 km/h (1 Bft)
17.10.2015 15:42 9,7 C 94 % 1017,8 hPa 0,0 l/m 0,0 km/h (0 Bft) O-SO 116 0 min 32 W/m 8,8 C 9,7 C 1,6 km/h (1 Bft)
17.10.2015 15:45 9,7 C 95 % 1017,8 hPa 0,0 l/m 0,7 km/h (0 Bft) O-SO 116 0 min 26 W/m 8,9 C 9,7 C 3,2 km/h (1 Bft)
17.10.2015 15:48 9,6 C 95 % 1017,9 hPa 0,0 l/m 0,1 km/h (0 Bft) O-SO 116 0 min 30 W/m 8,8 C 9,6 C 3,2 km/h (1 Bft)
17.10.2015 15:51 9,6 C 95 % 1017,8 hPa 0,0 l/m 0,1 km/h (0 Bft) O-SO 116 0 min 35 W/m 8,8 C 9,6 C 1,6 km/h (1 Bft)
17.10.2015 15:54 9,6 C 95 % 1017,8 hPa 0,0 l/m 0,8 km/h (0 Bft) O-SO 103 0 min 33 W/m 8,8 C 9,6 C 3,2 km/h (1 Bft)
17.10.2015 15:57 9,6 C 95 % 1017,8 hPa 0,0 l/m 0,5 km/h (0 Bft) O-SO 103 0 min 32 W/m 8,8 C 9,6 C 1,6 km/h (1 Bft)
17.10.2015 16:00 9,4 C 95 % 1017,8 hPa 0,0 l/m 0,0 km/h (0 Bft) O-SO 103 0 min 32 W/m 8,6 C 9,4 C 1,6 km/h (1 Bft)
17.10.2015 16:03 9,4 C 95 % 1017,8 hPa 0,0 l/m 0,0 km/h (0 Bft) O-SO 103 0 min 28 W/m 8,6 C 9,4 C 1,6 km/h (1 Bft)
17.10.2015 16:06 9,5 C 95 % 1017,8 hPa 0,0 l/m 0,0 km/h (0 Bft) O-SO 103 0 min 30 W/m 8,7 C 9,5 C 1,6 km/h (1 Bft)
17.10.2015 16:09 9,5 C 95 % 1017,9 hPa 0,0 l/m 0,0 km/h (0 Bft) O-SO 103 0 min 30 W/m 8,7 C 9,5 C 0,0 km/h (0 Bft)
17.10.2015 16:12 9,4 C 95 % 1017,9 hPa 0,0 l/m 0,1 km/h (0 Bft) O-SO 103 0 min 32 W/m 8,6 C 9,4 C 1,6 km/h (1 Bft)
17.10.2015 16:15 9,4 C 95 % 1017,8 hPa 0,0 l/m 0,0 km/h (0 Bft) O-SO 103 0 min 40 W/m 8,6 C 9,4 C 0,0 km/h (0 Bft)
17.10.2015 16:18 9,4 C 96 % 1017,7 hPa 0,0 l/m 0,0 km/h (0 Bft) O-SO 103 0 min 37 W/m 8,8 C 9,4 C 0,0 km/h (0 Bft)
17.10.2015 16:21 9,6 C 96 % 1017,7 hPa 0,0 l/m 0,0 km/h (0 Bft) O-SO 103 0 min 26 W/m 9,0 C 9,6 C 1,6 km/h (1 Bft)
17.10.2015 16:24 9,5 C 95 % 1017,7 hPa 0,0 l/m 0,0 km/h (0 Bft) O-SO 103 0 min 19 W/m 8,7 C 9,5 C 0,0 km/h (0 Bft)
17.10.2015 16:27 9,4 C 96 % 1017,7 hPa 0,0 l/m 0,0 km/h (0 Bft) O-SO 103 0 min 19 W/m 8,8 C 9,4 C 0,0 km/h (0 Bft)
17.10.2015 16:30 9,4 C 96 % 1017,8 hPa 0,0 l/m 0,0 km/h (0 Bft) O-SO 103 0 min 18 W/m 8,8 C 9,4 C 1,6 km/h (1 Bft)
17.10.2015 16:33 9,5 C 96 % 1017,8 hPa 0,0 l/m 0,6 km/h (0 Bft) O-SO 103 0 min 14 W/m 8,9 C 9,5 C 1,6 km/h (1 Bft)
17.10.2015 16:36 9,5 C 96 % 1017,8 hPa 0,0 l/m 0,7 km/h (0 Bft) O-SO 103 0 min 16 W/m 8,9 C 9,5 C 3,2 km/h (1 Bft)
17.10.2015 16:39 9,4 C 96 % 1017,8 hPa 0,0 l/m 0,4 km/h (0 Bft) O-SO 103 0 min 16 W/m 8,8 C 9,4 C 1,6 km/h (1 Bft)
17.10.2015 16:42 9,4 C 96 % 1017,7 hPa 0,0 l/m 0,0 km/h (0 Bft) O-SO 103 0 min 16 W/m 8,8 C 9,4 C 1,6 km/h (1 Bft)
17.10.2015 16:45 9,4 C 96 % 1017,8 hPa 0,0 l/m 0,0 km/h (0 Bft) O-SO 103 0 min 19 W/m 8,8 C 9,4 C 1,6 km/h (1 Bft)
17.10.2015 16:48 9,4 C 96 % 1017,8 hPa 0,0 l/m 0,0 km/h (0 Bft) O-SO 103 0 min 19 W/m 8,8 C 9,4 C 1,6 km/h (1 Bft)
17.10.2015 16:51 9,3 C 96 % 1017,8 hPa 0,0 l/m 0,1 km/h (0 Bft) O-SO 103 0 min 21 W/m 8,7 C 9,3 C 1,6 km/h (1 Bft)
17.10.2015 16:54 9,3 C 97 % 1017,8 hPa 0,0 l/m 0,2 km/h (0 Bft) O-SO 103 0 min 21 W/m 8,8 C 9,3 C 1,6 km/h (1 Bft)
17.10.2015 16:57 9,4 C 97 % 1017,8 hPa 0,0 l/m 0,4 km/h (0 Bft) O-SO 103 0 min 23 W/m 8,9 C 9,4 C 3,2 km/h (1 Bft)
17.10.2015 17:00 9,4 C 97 % 1017,7 hPa 0,0 l/m 2,1 km/h (1 Bft) NO 43 0 min 26 W/m 8,9 C 9,4 C 3,2 km/h (1 Bft)
17.10.2015 17:03 9,4 C 97 % 1017,7 hPa 0,0 l/m 1,7 km/h (1 Bft) N-NW 341 0 min 26 W/m 8,9 C 9,4 C 4,8 km/h (1 Bft)
17.10.2015 17:06 9,4 C 97 % 1017,7 hPa 0,0 l/m 2,2 km/h (1 Bft) N-NW 341 0 min 25 W/m 8,9 C 9,4 C 4,8 km/h (1 Bft)
17.10.2015 17:09 9,4 C 97 % 1017,7 hPa 0,0 l/m 1,9 km/h (1 Bft) N-NW 341 0 min 21 W/m 8,9 C 9,4 C 4,8 km/h (1 Bft)
17.10.2015 17:12 9,4 C 97 % 1017,7 hPa 0,0 l/m 1,5 km/h (1 Bft) N-NW 341 0 min 19 W/m 8,9 C 9,4 C 3,2 km/h (1 Bft)
17.10.2015 17:15 9,4 C 97 % 1017,7 hPa 0,0 l/m 1,7 km/h (1 Bft) N-NW 341 0 min 16 W/m 8,9 C 9,4 C 3,2 km/h (1 Bft)
17.10.2015 17:18 9,4 C 97 % 1017,7 hPa 0,0 l/m 1,7 km/h (1 Bft) N-NW 341 0 min 12 W/m 8,9 C 9,4 C 4,8 km/h (1 Bft)
17.10.2015 17:21 9,4 C 97 % 1017,7 hPa 0,0 l/m 0,6 km/h (0 Bft) N-NW 341 0 min 12 W/m 8,9 C 9,4 C 1,6 km/h (1 Bft)
17.10.2015 17:24 9,4 C 97 % 1017,7 hPa 0,0 l/m 1,9 km/h (1 Bft) N-NW 341 0 min 9 W/m 8,9 C 9,4 C 4,8 km/h (1 Bft)
17.10.2015 17:27 9,4 C 97 % 1017,7 hPa 0,0 l/m 1,6 km/h (1 Bft) N-NW 341 0 min 7 W/m 8,9 C 9,4 C 4,8 km/h (1 Bft)
17.10.2015 17:30 9,4 C 97 % 1017,8 hPa 0,0 l/m 1,6 km/h (1 Bft) N-NW 341 0 min 5 W/m 8,9 C 9,4 C 4,8 km/h (1 Bft)
17.10.2015 17:33 9,4 C 97 % 1017,7 hPa 0,0 l/m 1,6 km/h (1 Bft) N-NW 341 0 min 5 W/m 8,9 C 9,4 C 3,2 km/h (1 Bft)
17.10.2015 17:36 9,4 C 97 % 1017,7 hPa 0,0 l/m 1,2 km/h (1 Bft) N-NW 341 0 min 5 W/m 8,9 C 9,4 C 3,2 km/h (1 Bft)
17.10.2015 17:39 9,4 C 97 % 1017,7 hPa 0,0 l/m 0,5 km/h (0 Bft) N-NW 341 0 min 5 W/m 8,9 C 9,4 C 3,2 km/h (1 Bft)
17.10.2015 17:42 9,4 C 97 % 1017,8 hPa 0,0 l/m 0,8 km/h (0 Bft) N-NW 341 0 min 0 W/m 8,9 C 9,4 C 3,2 km/h (1 Bft)
17.10.2015 17:45 9,4 C 97 % 1017,8 hPa 0,0 l/m 0,8 km/h (0 Bft) N-NW 341 0 min 0 W/m 8,9 C 9,4 C 3,2 km/h (1 Bft)
17.10.2015 17:48 9,5 C 97 % 1017,8 hPa 0,0 l/m 2,0 km/h (1 Bft) N-NW 341 0 min 0 W/m 9,0 C 9,5 C 4,8 km/h (1 Bft)
17.10.2015 17:51 9,4 C 97 % 1017,8 hPa 0,0 l/m 0,9 km/h (0 Bft) N-NW 341 0 min 0 W/m 8,9 C 9,4 C 3,2 km/h (1 Bft)
17.10.2015 17:54 9,4 C 97 % 1017,8 hPa 0,0 l/m 1,1 km/h (1 Bft) N-NW 341 0 min 0 W/m 8,9 C 9,4 C 3,2 km/h (1 Bft)
17.10.2015 17:57 9,4 C 97 % 1017,8 hPa 0,0 l/m 0,4 km/h (0 Bft) N-NW 341 0 min 0 W/m 8,9 C 9,4 C 1,6 km/h (1 Bft)
17.10.2015 18:00 9,4 C 97 % 1017,8 hPa 0,0 l/m 0,7 km/h (0 Bft) N-NW 341 0 min 0 W/m 8,9 C 9,4 C 3,2 km/h (1 Bft)
17.10.2015 18:03 9,4 C 97 % 1017,8 hPa 0,0 l/m 0,4 km/h (0 Bft) N-NW 341 0 min 0 W/m 8,9 C 9,4 C 3,2 km/h (1 Bft)
17.10.2015 18:06 9,4 C 97 % 1017,8 hPa 0,0 l/m 1,4 km/h (1 Bft) N-NW 341 0 min 0 W/m 8,9 C 9,4 C 3,2 km/h (1 Bft)
17.10.2015 18:09 9,4 C 97 % 1017,8 hPa 0,0 l/m 0,7 km/h (0 Bft) N-NW 341 0 min 0 W/m 8,9 C 9,4 C 1,6 km/h (1 Bft)
17.10.2015 18:12 9,4 C 97 % 1017,7 hPa 0,0 l/m 2,0 km/h (1 Bft) N-NW 341 0 min 0 W/m 8,9 C 9,4 C 4,8 km/h (1 Bft)
17.10.2015 18:15 9,4 C 97 % 1017,7 hPa 0,0 l/m 2,7 km/h (1 Bft) N-NW 341 0 min 0 W/m 8,9 C 9,4 C 4,8 km/h (1 Bft)
17.10.2015 18:18 9,4 C 97 % 1017,8 hPa 0,0 l/m 1,4 km/h (1 Bft) N-NW 341 0 min 0 W/m 8,9 C 9,4 C 3,2 km/h (1 Bft)
17.10.2015 18:21 9,4 C 97 % 1017,7 hPa 0,0 l/m 2,1 km/h (1 Bft) N-NW 341 0 min 0 W/m 8,9 C 9,4 C 4,8 km/h (1 Bft)
17.10.2015 18:24 9,4 C 97 % 1017,8 hPa 0,0 l/m 3,5 km/h (1 Bft) N-NW 341 0 min 0 W/m 8,9 C 9,4 C 6,4 km/h (2 Bft)
17.10.2015 18:27 9,4 C 97 % 1017,9 hPa 0,0 l/m 1,4 km/h (1 Bft) N-NW 341 0 min 0 W/m 8,9 C 9,4 C 4,8 km/h (1 Bft)
17.10.2015 18:30 9,4 C 97 % 1017,9 hPa 0,0 l/m 0,1 km/h (0 Bft) N-NW 341 0 min 0 W/m 8,9 C 9,4 C 1,6 km/h (1 Bft)
17.10.2015 18:33 9,5 C 97 % 1017,8 hPa 0,0 l/m 1,9 km/h (1 Bft) N-NW 341 0 min 0 W/m 9,0 C 9,5 C 3,2 km/h (1 Bft)
17.10.2015 18:36 9,5 C 97 % 1017,8 hPa 0,0 l/m 1,7 km/h (1 Bft) N-NW 341 0 min 0 W/m 9,0 C 9,5 C 4,8 km/h (1 Bft)
17.10.2015 18:39 9,6 C 97 % 1017,8 hPa 0,0 l/m 1,0 km/h (0 Bft) N-NW 341 0 min 0 W/m 9,1 C 9,6 C 3,2 km/h (1 Bft)
17.10.2015 18:42 9,6 C 97 % 1017,9 hPa 0,0 l/m 1,4 km/h (1 Bft) N-NW 341 0 min 0 W/m 9,1 C 9,6 C 3,2 km/h (1 Bft)
17.10.2015 18:45 9,6 C 97 % 1017,9 hPa 0,0 l/m 0,4 km/h (0 Bft) N-NW 341 0 min 0 W/m 9,1 C 9,6 C 1,6 km/h (1 Bft)
17.10.2015 18:48 9,6 C 97 % 1017,9 hPa 0,0 l/m 0,9 km/h (0 Bft) N-NW 341 0 min 0 W/m 9,1 C 9,6 C 1,6 km/h (1 Bft)
17.10.2015 18:51 9,5 C 97 % 1017,9 hPa 0,0 l/m 0,7 km/h (0 Bft) N-NW 341 0 min 0 W/m 9,0 C 9,5 C 3,2 km/h (1 Bft)
17.10.2015 18:54 9,6 C 97 % 1017,9 hPa 0,0 l/m 0,0 km/h (0 Bft) N-NW 341 0 min 0 W/m 9,1 C 9,6 C 1,6 km/h (1 Bft)
17.10.2015 18:57 9,5 C 97 % 1018,0 hPa 0,0 l/m 0,0 km/h (0 Bft) N-NW 341 0 min 0 W/m 9,0 C 9,5 C 0,0 km/h (0 Bft)
17.10.2015 19:00 9,5 C 97 % 1018,0 hPa 0,0 l/m 0,0 km/h (0 Bft) N-NW 341 0 min 0 W/m 9,0 C 9,5 C 0,0 km/h (0 Bft)
17.10.2015 19:03 9,5 C 97 % 1017,9 hPa 0,0 l/m 0,1 km/h (0 Bft) N-NW 341 0 min 0 W/m 9,0 C 9,5 C 1,6 km/h (1 Bft)
17.10.2015 19:06 9,6 C 97 % 1017,9 hPa 0,0 l/m 0,8 km/h (0 Bft) N-NW 341 0 min 0 W/m 9,1 C 9,6 C 3,2 km/h (1 Bft)
17.10.2015 19:09 9,5 C 97 % 1018,0 hPa 0,0 l/m 2,4 km/h (1 Bft) N-NW 341 0 min 0 W/m 9,0 C 9,5 C 3,2 km/h (1 Bft)
17.10.2015 19:12 9,4 C 97 % 1017,9 hPa 0,0 l/m 2,6 km/h (1 Bft) NW 320 0 min 0 W/m 8,9 C 9,4 C 4,8 km/h (1 Bft)
17.10.2015 19:15 9,3 C 97 % 1017,9 hPa 0,0 l/m 3,0 km/h (1 Bft) W-NW 299 0 min 0 W/m 8,8 C 9,3 C 3,2 km/h (1 Bft)
17.10.2015 19:18 9,3 C 97 % 1017,9 hPa 0,0 l/m 2,1 km/h (1 Bft) W-NW 299 0 min 0 W/m 8,8 C 9,3 C 4,8 km/h (1 Bft)
17.10.2015 19:21 9,3 C 97 % 1017,9 hPa 0,0 l/m 0,0 km/h (0 Bft) W-NW 299 0 min 0 W/m 8,8 C 9,3 C 1,6 km/h (1 Bft)
17.10.2015 19:24 9,4 C 97 % 1017,9 hPa 0,0 l/m 0,0 km/h (0 Bft) W-NW 299 0 min 0 W/m 8,9 C 9,4 C 1,6 km/h (1 Bft)
17.10.2015 19:27 9,4 C 97 % 1017,9 hPa 0,0 l/m 1,0 km/h (0 Bft) W-NW 299 0 min 0 W/m 8,9 C 9,4 C 3,2 km/h (1 Bft)
17.10.2015 19:30 9,4 C 97 % 1017,9 hPa 0,0 l/m 1,0 km/h (0 Bft) W-NW 299 0 min 0 W/m 8,9 C 9,4 C 3,2 km/h (1 Bft)
17.10.2015 19:33 9,4 C 97 % 1017,8 hPa 0,0 l/m 1,3 km/h (1 Bft) W-NW 299 0 min 0 W/m 8,9 C 9,4 C 3,2 km/h (1 Bft)
17.10.2015 19:36 9,4 C 97 % 1017,9 hPa 0,0 l/m 0,7 km/h (0 Bft) W-NW 299 0 min 0 W/m 8,9 C 9,4 C 1,6 km/h (1 Bft)
17.10.2015 19:39 9,3 C 97 % 1017,8 hPa 0,0 l/m 1,1 km/h (1 Bft) W-NW 299 0 min 0 W/m 8,8 C 9,3 C 3,2 km/h (1 Bft)
17.10.2015 19:42 9,3 C 97 % 1017,8 hPa 0,2 l/m 0,7 km/h (0 Bft) W-NW 299 0 min 0 W/m 8,8 C 9,3 C 3,2 km/h (1 Bft)
17.10.2015 19:45 9,3 C 97 % 1017,9 hPa 0,0 l/m 1,2 km/h (1 Bft) W-NW 299 0 min 0 W/m 8,8 C 9,3 C 3,2 km/h (1 Bft)
17.10.2015 19:48 9,4 C 98 % 1017,8 hPa 0,0 l/m 1,3 km/h (1 Bft) W-NW 299 0 min 0 W/m 9,1 C 9,4 C 3,2 km/h (1 Bft)
17.10.2015 19:51 9,4 C 98 % 1017,9 hPa 0,0 l/m 1,0 km/h (0 Bft) W-NW 299 0 min 0 W/m 9,1 C 9,4 C 3,2 km/h (1 Bft)
17.10.2015 19:54 9,4 C 98 % 1017,9 hPa 0,0 l/m 0,3 km/h (0 Bft) W-NW 299 0 min 0 W/m 9,1 C 9,4 C 1,6 km/h (1 Bft)
17.10.2015 19:57 9,5 C 98 % 1017,9 hPa 0,0 l/m 0,4 km/h (0 Bft) W-NW 299 0 min 0 W/m 9,2 C 9,5 C 1,6 km/h (1 Bft)
17.10.2015 20:00 9,5 C 98 % 1017,9 hPa 0,0 l/m 0,3 km/h (0 Bft) W-NW 299 0 min 0 W/m 9,2 C 9,5 C 1,6 km/h (1 Bft)
17.10.2015 20:03 9,6 C 98 % 1018,0 hPa 0,0 l/m 1,0 km/h (0 Bft) W-NW 299 0 min 0 W/m 9,3 C 9,6 C 1,6 km/h (1 Bft)
17.10.2015 20:06 9,6 C 98 % 1017,9 hPa 0,0 l/m 1,0 km/h (0 Bft) W-NW 299 0 min 0 W/m 9,3 C 9,6 C 1,6 km/h (1 Bft)
17.10.2015 20:09 9,6 C 98 % 1017,9 hPa 0,2 l/m 1,6 km/h (1 Bft) W-NW 299 0 min 0 W/m 9,3 C 9,6 C 3,2 km/h (1 Bft)
17.10.2015 20:12 9,6 C 98 % 1017,9 hPa 0,0 l/m 2,2 km/h (1 Bft) W-NW 299 0 min 0 W/m 9,3 C 9,6 C 3,2 km/h (1 Bft)
17.10.2015 20:15 9,4 C 98 % 1017,9 hPa 0,0 l/m 3,0 km/h (1 Bft) W 279 0 min 0 W/m 9,1 C 9,4 C 4,8 km/h (1 Bft)
17.10.2015 20:18 9,4 C 98 % 1017,9 hPa 0,0 l/m 2,9 km/h (1 Bft) W 271 0 min 0 W/m 9,1 C 9,4 C 4,8 km/h (1 Bft)
17.10.2015 20:21 9,4 C 98 % 1017,9 hPa 0,0 l/m 3,4 km/h (1 Bft) W-SW 238 0 min 0 W/m 9,1 C 9,4 C 4,8 km/h (1 Bft)
17.10.2015 20:24 9,3 C 98 % 1017,9 hPa 0,0 l/m 2,9 km/h (1 Bft) W-SW 238 0 min 0 W/m 9,0 C 9,3 C 4,8 km/h (1 Bft)
17.10.2015 20:27 9,3 C 98 % 1018,0 hPa 0,0 l/m 2,8 km/h (1 Bft) SW 236 0 min 0 W/m 9,0 C 9,3 C 4,8 km/h (1 Bft)
17.10.2015 20:30 9,3 C 98 % 1017,9 hPa 0,0 l/m 3,4 km/h (1 Bft) SW 235 0 min 0 W/m 9,0 C 9,3 C 4,8 km/h (1 Bft)
17.10.2015 20:33 9,3 C 98 % 1018,0 hPa 0,0 l/m 3,9 km/h (1 Bft) SW 234 0 min 0 W/m 9,0 C 9,3 C 6,4 km/h (2 Bft)
17.10.2015 20:36 9,3 C 98 % 1018,1 hPa 0,0 l/m 3,2 km/h (1 Bft) SW 229 0 min 0 W/m 9,0 C 9,3 C 4,8 km/h (1 Bft)
17.10.2015 20:39 9,3 C 98 % 1018,0 hPa 0,0 l/m 3,4 km/h (1 Bft) SW 229 0 min 0 W/m 9,0 C 9,3 C 6,4 km/h (2 Bft)
17.10.2015 20:42 9,3 C 98 % 1018,1 hPa 0,0 l/m 4,3 km/h (1 Bft) S-SW 213 0 min 0 W/m 9,0 C 9,3 C 6,4 km/h (2 Bft)
17.10.2015 20:45 9,3 C 98 % 1018,1 hPa 0,0 l/m 3,8 km/h (1 Bft) SW 214 0 min 0 W/m 9,0 C 9,3 C 6,4 km/h (2 Bft)
17.10.2015 20:48 9,3 C 98 % 1018,0 hPa 0,0 l/m 4,2 km/h (1 Bft) SW 230 0 min 0 W/m 9,0 C 9,3 C 6,4 km/h (2 Bft)
17.10.2015 20:51 9,3 C 98 % 1018,0 hPa 0,0 l/m 5,0 km/h (1 Bft) SW 215 0 min 0 W/m 9,0 C 9,3 C 8,0 km/h (2 Bft)
17.10.2015 20:54 9,3 C 98 % 1018,0 hPa 0,2 l/m 4,6 km/h (1 Bft) SW 221 0 min 0 W/m 9,0 C 9,3 C 8,0 km/h (2 Bft)
17.10.2015 20:57 9,3 C 98 % 1018,1 hPa 0,0 l/m 3,6 km/h (1 Bft) SW 219 0 min 0 W/m 9,0 C 9,3 C 4,8 km/h (1 Bft)
17.10.2015 21:00 9,2 C 98 % 1018,0 hPa 0,0 l/m 5,4 km/h (2 Bft) SW 223 0 min 0 W/m 8,9 C 9,2 C 8,0 km/h (2 Bft)
17.10.2015 21:03 9,2 C 98 % 1018,0 hPa 0,0 l/m 5,2 km/h (1 Bft) SW 231 0 min 0 W/m 8,9 C 9,2 C 8,0 km/h (2 Bft)
17.10.2015 21:06 9,2 C 98 % 1018,1 hPa 0,0 l/m 5,0 km/h (1 Bft) S-SW 196 0 min 0 W/m 8,9 C 9,2 C 8,0 km/h (2 Bft)
17.10.2015 21:09 9,2 C 98 % 1018,0 hPa 0,2 l/m 6,1 km/h (2 Bft) SW 215 0 min 0 W/m 8,9 C 9,2 C 9,7 km/h (2 Bft)
17.10.2015 21:12 9,2 C 98 % 1018,1 hPa 0,0 l/m 6,3 km/h (2 Bft) SW 221 0 min 0 W/m 8,9 C 9,2 C 9,7 km/h (2 Bft)
17.10.2015 21:15 9,1 C 98 % 1018,0 hPa 0,0 l/m 4,4 km/h (1 Bft) SW 235 0 min 0 W/m 8,8 C 9,1 C 4,8 km/h (1 Bft)
17.10.2015 21:18 9,2 C 98 % 1018,0 hPa 0,0 l/m 4,8 km/h (1 Bft) SW 227 0 min 0 W/m 8,9 C 9,2 C 8,0 km/h (2 Bft)
17.10.2015 21:21 9,2 C 98 % 1018,1 hPa 0,2 l/m 3,6 km/h (1 Bft) SW 229 0 min 0 W/m 8,9 C 9,2 C 6,4 km/h (2 Bft)
17.10.2015 21:24 9,2 C 98 % 1018,1 hPa 0,0 l/m 4,7 km/h (1 Bft) S-SW 213 0 min 0 W/m 8,9 C 9,2 C 8,0 km/h (2 Bft)
17.10.2015 21:27 9,2 C 98 % 1018,1 hPa 0,0 l/m 4,8 km/h (1 Bft) SW 222 0 min 0 W/m 8,9 C 9,2 C 8,0 km/h (2 Bft)
17.10.2015 21:30 9,2 C 98 % 1018,1 hPa 0,0 l/m 4,9 km/h (1 Bft) W-SW 244 0 min 0 W/m 8,9 C 9,2 C 11,3 km/h (2 Bft)
17.10.2015 21:33 9,1 C 98 % 1018,2 hPa 0,0 l/m 4,8 km/h (1 Bft) W 261 0 min 0 W/m 8,8 C 9,1 C 9,7 km/h (2 Bft)
17.10.2015 21:36 9,1 C 98 % 1018,1 hPa 0,0 l/m 6,9 km/h (2 Bft) W-SW 242 0 min 0 W/m 8,8 C 8,7 C 12,9 km/h (3 Bft)
17.10.2015 21:39 9,1 C 98 % 1018,1 hPa 0,0 l/m 4,3 km/h (1 Bft) SW 225 0 min 0 W/m 8,8 C 9,1 C 8,0 km/h (2 Bft)
17.10.2015 21:42 9,1 C 98 % 1018,1 hPa 0,2 l/m 5,4 km/h (2 Bft) W 265 0 min 0 W/m 8,8 C 9,1 C 9,7 km/h (2 Bft)
17.10.2015 21:45 9,1 C 98 % 1018,0 hPa 0,0 l/m 4,7 km/h (1 Bft) W-SW 244 0 min 0 W/m 8,8 C 9,1 C 9,7 km/h (2 Bft)
17.10.2015 21:48 9,1 C 98 % 1018,1 hPa 0,0 l/m 7,4 km/h (2 Bft) SW 227 0 min 0 W/m 8,8 C 8,3 C 12,9 km/h (3 Bft)
17.10.2015 21:51 9,1 C 98 % 1018,1 hPa 0,0 l/m 5,2 km/h (1 Bft) SW 223 0 min 0 W/m 8,8 C 9,1 C 11,3 km/h (2 Bft)
17.10.2015 21:54 9,1 C 98 % 1018,1 hPa 0,0 l/m 4,2 km/h (1 Bft) S-SW 209 0 min 0 W/m 8,8 C 9,1 C 8,0 km/h (2 Bft)
17.10.2015 21:57 9,1 C 98 % 1018,0 hPa 0,0 l/m 5,7 km/h (2 Bft) S 191 0 min 0 W/m 8,8 C 9,1 C 9,7 km/h (2 Bft)
17.10.2015 22:00 9,1 C 98 % 1018,0 hPa 0,0 l/m 4,2 km/h (1 Bft) SW 236 0 min 0 W/m 8,8 C 9,1 C 8,0 km/h (2 Bft)
17.10.2015 22:03 9,1 C 98 % 1018,0 hPa 0,2 l/m 5,0 km/h (1 Bft) SW 219 0 min 0 W/m 8,8 C 9,1 C 8,0 km/h (2 Bft)
17.10.2015 22:06 9,1 C 98 % 1018,0 hPa 0,0 l/m 3,2 km/h (1 Bft) SW 220 0 min 0 W/m 8,8 C 9,1 C 4,8 km/h (1 Bft)
17.10.2015 22:09 9,1 C 98 % 1018,0 hPa 0,0 l/m 4,8 km/h (1 Bft) SW 215 0 min 0 W/m 8,8 C 9,1 C 8,0 km/h (2 Bft)
17.10.2015 22:12 9,1 C 98 % 1018,0 hPa 0,0 l/m 5,7 km/h (2 Bft) W-SW 237 0 min 0 W/m 8,8 C 9,1 C 11,3 km/h (2 Bft)
17.10.2015 22:15 9,1 C 98 % 1018,0 hPa 0,0 l/m 5,7 km/h (2 Bft) W-SW 254 0 min 0 W/m 8,8 C 9,1 C 12,9 km/h (3 Bft)
17.10.2015 22:18 9,1 C 98 % 1018,0 hPa 0,0 l/m 6,2 km/h (2 Bft) SW 234 0 min 0 W/m 8,8 C 9,1 C 11,3 km/h (2 Bft)
17.10.2015 22:21 9,0 C 98 % 1018,0 hPa 0,0 l/m 6,2 km/h (2 Bft) SW 234 0 min 0 W/m 8,7 C 9,0 C 11,3 km/h (2 Bft)
17.10.2015 22:24 9,0 C 98 % 1018,0 hPa 0,0 l/m 6,0 km/h (2 Bft) SW 225 0 min 0 W/m 8,7 C 9,0 C 11,3 km/h (2 Bft)
17.10.2015 22:27 9,0 C 98 % 1018,0 hPa 0,0 l/m 6,2 km/h (2 Bft) S-SW 207 0 min 0 W/m 8,7 C 9,0 C 11,3 km/h (2 Bft)
17.10.2015 22:30 9,0 C 98 % 1018,0 hPa 0,0 l/m 5,8 km/h (2 Bft) W-SW 242 0 min 0 W/m 8,7 C 9,0 C 11,3 km/h (2 Bft)
17.10.2015 22:33 9,0 C 98 % 1018,0 hPa 0,0 l/m 5,3 km/h (1 Bft) W-SW 258 0 min 0 W/m 8,7 C 9,0 C 9,7 km/h (2 Bft)
17.10.2015 22:36 9,0 C 98 % 1018,0 hPa 0,2 l/m 5,0 km/h (1 Bft) W-SW 244 0 min 0 W/m 8,7 C 9,0 C 8,0 km/h (2 Bft)
17.10.2015 22:39 9,1 C 98 % 1018,0 hPa 0,0 l/m 6,3 km/h (2 Bft) SW 226 0 min 0 W/m 8,8 C 9,1 C 11,3 km/h (2 Bft)
17.10.2015 22:42 9,1 C 98 % 1018,0 hPa 0,0 l/m 5,7 km/h (2 Bft) SW 229 0 min 0 W/m 8,8 C 9,1 C 9,7 km/h (2 Bft)
17.10.2015 22:45 9,1 C 98 % 1018,0 hPa 0,0 l/m 4,6 km/h (1 Bft) W-NW 287 0 min 0 W/m 8,8 C 9,1 C 9,7 km/h (2 Bft)
17.10.2015 22:48 9,1 C 98 % 1018,0 hPa 0,0 l/m 5,3 km/h (1 Bft) SW 218 0 min 0 W/m 8,8 C 9,1 C 9,7 km/h (2 Bft)
17.10.2015 22:51 9,1 C 98 % 1018,1 hPa 0,0 l/m 5,9 km/h (2 Bft) W 262 0 min 0 W/m 8,8 C 9,1 C 11,3 km/h (2 Bft)
17.10.2015 22:54 9,1 C 98 % 1018,1 hPa 0,0 l/m 6,3 km/h (2 Bft) SW 218 0 min 0 W/m 8,8 C 9,1 C 11,3 km/h (2 Bft)
17.10.2015 22:57 9,1 C 98 % 1018,1 hPa 0,0 l/m 5,5 km/h (2 Bft) W-SW 250 0 min 0 W/m 8,8 C 9,1 C 11,3 km/h (2 Bft)
17.10.2015 23:00 9,1 C 98 % 1018,1 hPa 0,0 l/m 5,7 km/h (2 Bft) W 276 0 min 0 W/m 8,8 C 9,1 C 12,9 km/h (3 Bft)
17.10.2015 23:03 9,1 C 98 % 1018,0 hPa 0,0 l/m 5,7 km/h (2 Bft) W-SW 246 0 min 0 W/m 8,8 C 9,1 C 11,3 km/h (2 Bft)
17.10.2015 23:06 9,1 C 98 % 1018,0 hPa 0,2 l/m 6,3 km/h (2 Bft) W 260 0 min 0 W/m 8,8 C 9,1 C 11,3 km/h (2 Bft)
17.10.2015 23:09 9,1 C 98 % 1017,9 hPa 0,0 l/m 6,6 km/h (2 Bft) SW 232 0 min 0 W/m 8,8 C 9,0 C 14,5 km/h (3 Bft)
17.10.2015 23:12 9,1 C 98 % 1017,9 hPa 0,0 l/m 6,1 km/h (2 Bft) W 272 0 min 0 W/m 8,8 C 9,1 C 12,9 km/h (3 Bft)
17.10.2015 23:15 9,1 C 98 % 1018,0 hPa 0,0 l/m 5,2 km/h (1 Bft) W-NW 286 0 min 0 W/m 8,8 C 9,1 C 9,7 km/h (2 Bft)
17.10.2015 23:18 9,1 C 98 % 1018,0 hPa 0,0 l/m 6,6 km/h (2 Bft) SW 229 0 min 0 W/m 8,8 C 9,0 C 11,3 km/h (2 Bft)
17.10.2015 23:21 9,1 C 98 % 1017,9 hPa 0,0 l/m 5,6 km/h (2 Bft) W 259 0 min 0 W/m 8,8 C 9,1 C 9,7 km/h (2 Bft)
17.10.2015 23:24 9,1 C 98 % 1018,0 hPa 0,0 l/m 7,2 km/h (2 Bft) SW 215 0 min 0 W/m 8,8 C 8,5 C 11,3 km/h (2 Bft)
17.10.2015 23:27 9,1 C 98 % 1018,0 hPa 0,0 l/m 5,1 km/h (1 Bft) W-SW 258 0 min 0 W/m 8,8 C 9,1 C 8,0 km/h (2 Bft)
17.10.2015 23:30 9,1 C 98 % 1017,9 hPa 0,0 l/m 5,1 km/h (1 Bft) W 270 0 min 0 W/m 8,8 C 9,1 C 9,7 km/h (2 Bft)
17.10.2015 23:33 9,1 C 98 % 1017,9 hPa 0,0 l/m 3,8 km/h (1 Bft) W 276 0 min 0 W/m 8,8 C 9,1 C 8,0 km/h (2 Bft)
17.10.2015 23:36 9,2 C 98 % 1017,9 hPa 0,0 l/m 3,0 km/h (1 Bft) W 263 0 min 0 W/m 8,9 C 9,2 C 4,8 km/h (1 Bft)
17.10.2015 23:39 9,2 C 98 % 1017,8 hPa 0,0 l/m 4,4 km/h (1 Bft) W-SW 258 0 min 0 W/m 8,9 C 9,2 C 6,4 km/h (2 Bft)
17.10.2015 23:42 9,3 C 98 % 1017,8 hPa 0,0 l/m 3,2 km/h (1 Bft) W-SW 255 0 min 0 W/m 9,0 C 9,3 C 6,4 km/h (2 Bft)
17.10.2015 23:45 9,3 C 98 % 1017,8 hPa 0,0 l/m 3,3 km/h (1 Bft) W-NW 286 0 min 0 W/m 9,0 C 9,3 C 6,4 km/h (2 Bft)
17.10.2015 23:48 9,3 C 98 % 1017,8 hPa 0,0 l/m 3,2 km/h (1 Bft) SW 232 0 min 0 W/m 9,0 C 9,3 C 6,4 km/h (2 Bft)
17.10.2015 23:51 9,3 C 98 % 1017,8 hPa 0,0 l/m 4,0 km/h (1 Bft) S-SW 207 0 min 0 W/m 9,0 C 9,3 C 9,7 km/h (2 Bft)
17.10.2015 23:54 9,4 C 99 % 1017,8 hPa 0,0 l/m 3,9 km/h (1 Bft) W-SW 247 0 min 0 W/m 9,3 C 9,4 C 6,4 km/h (2 Bft)
17.10.2015 23:57 9,4 C 99 % 1017,7 hPa 0,0 l/m 4,4 km/h (1 Bft) S-SW 200 0 min 0 W/m 9,3 C 9,4 C 8,0 km/h (2 Bft)
_ Min-Zeit 07:15 14:12 05:57 - 04:27 - - - - 07:15 07:15 09:27
Minimum _ 7,8 C 92 % 1015,8 hPa - 0,0 km/h (0 Bft) - - - - 7,5 C 7,8 C 0,0 km/h (0 Bft)
_ Max-Zeit 13:27 23:54 21:33 09:09 21:48 - - 00:00 10:48 20:03 15:12 23:09
Maximum _ 9,7 C 99 % 1018,2 hPa 0,2 l/m 7,4 km/h
SW (2 Bft)
- - 0 min 135 W/m 9,3 C 9,7 C 14,5 km/h
W-SW (3 Bft)
Durchschnitt _ 8,9 C 97 % 1017,2 hPa #2,4 l/m 1,9 km/h (1 Bft) SO - #0 min. 57 W/m 8,5 C 8,9 C 4,4 km/h (1 Bft)
copyright by Holger Just